GFSFLT1_sfc_30mbdewp_000.txt.gz
Dewpoint
30 30 30 32 36 41 42 43 47 45 42 41 40 38 38 41 41 42 46 48 48 47 45 44 43 40 38 37 34 36 35 33
30 31 32 34 37 37 35 37 37 36 34 34 34 33 33 34 36 38 40 44 47 47 45 44 44 41 39 37 36 34 34 36
29 31 32 34 34 33 30 29 30 30 32 32 33 32 32 32 33 34 35 37 41 45 45 42 42 42 40 38 36 34 34 35
28 28 29 29 30 30 30 30 30 31 33 33 33 33 33 33 32 32 33 35 37 42 43 43 41 41 40 39 37 35 33 35
29 28 28 28 29 30 31 33 34 35 35 35 35 34 34 34 35 35 36 37 36 37 42 44 41 40 40 40 38 37 34 33
26 27 28 31 33 34 38 37 36 36 36 36 35 32 35 37 37 37 38 38 38 37 38 39 41 39 39 38 37 36 32 31
30 32 35 36 36 36 36 35 35 36 36 33 32 32 33 33 33 35 37 38 36 35 38 38 37 35 33 31 30 28 29 30
30 33 35 35 35 36 36 36 36 37 35 31 32 33 33 32 32 34 35 35 32 33 33 34 35 36 37 37 36 36 36 36
36 35 35 35 36 36 37 37 37 38 35 30 33 34 34 33 33 33 33 33 33 36 37 37 36 38 38 38 37 38 38 38
34 36 36 36 37 37 37 37 38 39 37 31 34 34 34 32 31 32 33 32 36 37 37 37 37 38 39 36 35 33 35 35
35 36 37 38 37 38 38 38 38 39 33 34 34 33 33 33 31 31 31 34 37 37 36 34 34 32 32 34 35 36 36 35
34 36 38 38 38 38 39 38 38 39 32 34 33 32 32 31 30 31 32 35 33 30 30 30 29 31 32 33 33 32 29 29
35 37 38 39 38 38 39 38 39 34 34 33 33 29 26 28 29 30 30 27 27 27 27 27 28 27 28 28 26 25 24 22
37 38 38 39 38 38 39 38 36 35 34 34 28 25 24 27 28 32 33 33 31 29 28 27 28 27 26 24 23 22 23 23
37 38 39 38 38 39 39 38 36 35 36 33 31 30 27 31 36 36 35 34 32 31 31 29 27 23 21 21 22 22 22 21
37 39 38 37 38 39 37 36 35 37 37 36 35 36 37 36 36 36 36 35 35 35 34 26 22 20 20 23 23 21 21 20
39 36 37 38 37 36 35 34 35 37 36 36 37 38 37 36 36 35 35 35 35 36 29 20 19 21 26 25 25 24 23 22
34 33 32 35 36 35 33 34 36 36 32 27 27 28 28 30 31 32 29 23 21 19 18 20 22 23 26 25 24 24 24 23
34 33 35 35 34 32 31 30 28 25 26 29 30 28 23 21 20 19 18 17 16 17 19 23 22 21 22 22 21 22 21 21

GFSFLT1_sfc_30mbdewp_003.txt.gz
Dewpoint
31 32 34 40 45 45 49 49 50 51 48 45 42 42 42 43 43 44 46 47 50 51 50 50 50 47 47 46 43 40 35 34
32 33 35 37 41 43 44 42 44 43 38 37 36 36 36 37 37 38 40 40 44 47 47 48 49 47 45 45 43 40 37 38
32 35 36 39 39 42 39 36 36 35 35 36 37 37 37 36 38 39 39 39 39 40 44 44 44 45 46 46 44 40 38 38
31 32 36 36 36 35 34 35 37 38 38 37 37 37 37 35 33 33 34 39 39 40 40 41 43 44 43 44 45 42 38 37
30 31 32 33 35 39 40 39 38 37 38 35 35 33 32 34 34 33 35 37 39 39 40 40 41 42 43 43 44 43 42 38
32 34 38 38 39 39 39 38 38 39 36 35 35 36 36 36 35 33 34 36 38 38 38 39 39 40 40 41 42 42 40 40
33 38 37 37 39 40 40 38 38 40 37 35 37 38 38 37 35 33 33 34 36 36 36 37 37 36 37 37 37 37 36 35
37 36 36 37 38 39 38 38 38 39 40 35 37 39 38 36 34 33 34 33 34 35 36 37 36 37 37 37 38 38 38 37
37 37 37 38 38 39 39 38 38 40 41 36 38 39 36 35 34 35 34 33 34 37 36 36 38 38 38 39 39 38 36 36
36 37 38 40 39 40 40 39 38 40 41 37 38 37 35 35 34 33 33 35 36 37 38 37 36 36 36 35 34 33 34 35
35 36 38 40 40 40 41 40 38 40 40 36 36 35 34 33 31 33 34 36 37 35 31 30 30 30 31 31 31 33 33 33
35 36 37 39 40 39 40 40 39 39 36 36 35 34 31 29 31 33 34 34 32 30 30 31 32 33 32 31 31 30 27 27
36 37 38 40 40 39 40 41 39 37 36 35 35 30 27 30 31 33 35 34 32 31 30 33 33 31 31 28 26 24 21 19
37 38 39 40 38 39 40 40 38 36 36 36 33 31 29 31 36 36 36 35 34 35 35 34 31 26 25 22 22 22 22 22
38 39 38 37 38 39 39 37 36 36 37 36 36 35 34 36 36 36 36 35 33 33 33 34 31 24 20 19 20 22 22 20
39 37 35 35 37 38 36 35 35 37 37 36 35 37 37 35 31 30 30 31 33 34 34 31 23 20 17 22 22 21 21 21
36 36 35 35 37 36 34 33 36 37 33 28 28 28 28 27 28 29 28 25 21 21 20 19 20 20 27 25 26 23 23 21
35 32 32 35 37 34 32 32 34 31 27 27 29 30 26 21 21 20 19 19 18 17 18 19 21 23 24 24 23 20 20 19
31 31 34 37 35 32 30 30 28 26 26 30 31 26 20 20 20 19 18 17 17 17 20 21 19 17 20 21 21 20 20 20

GFSFLT1_sfc_30mbdewp_006.txt.gz
Dewpoint
41 38 37 41 47 52 51 46 46 48 47 45 41 41 40 39 38 38 39 40 42 43 43 45 46 46 45 43 43 43 40 39
34 35 37 42 49 49 46 45 42 40 37 36 35 36 36 37 38 40 41 40 40 41 40 41 42 42 43 46 45 44 44 41
33 36 39 41 43 43 40 37 38 37 36 38 39 40 38 39 37 38 37 35 35 35 37 38 38 39 40 41 43 44 44 43
32 35 37 39 39 39 38 39 39 40 38 37 36 36 36 35 35 34 34 34 34 35 36 37 38 38 36 38 40 40 40 41
31 33 37 38 41 40 39 39 38 38 39 37 38 36 35 36 36 34 34 32 33 34 35 37 37 37 37 37 35 37 39 38
35 36 37 39 40 41 41 39 39 39 38 39 37 37 37 36 35 33 30 29 31 33 36 37 38 37 37 39 40 40 41 40
36 37 37 38 40 41 40 38 38 39 39 38 39 40 38 35 32 30 29 30 30 32 36 37 38 38 37 37 39 40 40 39
36 36 36 38 40 40 38 38 36 38 39 37 37 36 36 34 32 30 31 30 30 33 37 37 36 37 36 37 37 37 38 38
35 35 36 39 40 40 40 38 36 36 36 35 34 37 37 34 33 33 32 32 34 37 37 36 36 37 37 38 37 37 36 37
34 35 36 39 40 40 41 39 36 36 37 38 39 39 36 35 33 33 32 34 34 36 37 35 31 32 32 33 34 35 34 33
34 35 35 38 39 41 41 40 39 39 39 38 38 36 35 33 32 32 33 35 36 33 31 31 31 33 35 35 35 34 33 32
35 36 36 37 40 40 39 40 40 39 38 36 35 35 33 32 32 33 34 34 32 31 30 32 33 35 37 37 34 32 26 25
35 36 37 39 40 39 39 39 37 37 34 33 34 33 32 32 33 34 34 34 34 34 35 36 36 36 32 30 29 26 22 20
34 36 38 39 37 36 37 37 36 34 33 32 32 34 33 33 34 34 36 36 36 36 34 33 34 32 31 27 22 21 21 21
37 39 38 36 35 35 36 36 35 33 33 32 32 33 36 36 36 34 32 30 29 28 26 25 25 23 21 19 18 19 19 18
37 37 35 34 33 34 35 34 32 34 33 31 30 30 29 28 26 25 23 21 18 18 17 17 18 18 16 22 18 19 20 20
36 34 33 28 29 34 35 29 31 34 31 29 28 28 26 23 21 20 17 16 17 17 17 17 17 17 25 25 24 20 19 18
35 33 27 29 33 36 29 28 31 32 29 27 27 27 23 20 17 15 15 16 17 17 17 19 19 19 21 21 22 19 17 17
30 28 27 30 34 31 29 28 29 28 27 27 28 24 20 17 15 15 16 16 16 17 18 18 18 17 19 21 20 18 19 19

GFSFLT1_sfc_30mbdewp_009.txt.gz
Dewpoint
39 44 41 41 42 45 47 49 40 43 44 45 40 39 40 39 39 40 42 41 43 43 42 43 44 43 43 44 46 45 47 45
41 39 39 43 48 48 47 44 45 42 39 38 36 36 37 39 39 41 41 40 38 37 36 37 38 37 40 43 44 43 45 45
35 38 39 42 45 46 43 41 39 38 38 39 41 41 39 39 39 38 37 38 37 36 35 35 35 36 39 41 42 42 42 43
34 37 40 41 41 40 40 40 40 40 39 38 38 37 37 36 37 37 37 37 34 33 33 35 37 38 36 39 39 39 39 40
32 36 38 41 42 41 40 40 39 39 40 39 39 38 37 38 38 37 36 33 31 31 32 34 37 38 38 37 35 40 40 38
35 36 38 40 42 42 41 40 39 40 39 40 39 40 40 39 38 36 35 31 32 31 31 34 37 36 37 38 38 38 38 37
36 37 37 40 42 42 41 39 38 40 41 41 40 41 39 36 35 33 31 32 31 31 32 36 37 37 37 36 37 38 39 39
35 36 36 38 39 40 40 38 38 38 39 39 37 36 37 36 34 33 32 30 30 33 35 36 36 35 36 39 41 39 39 39
35 36 37 37 38 39 41 41 39 37 38 38 39 38 37 36 35 33 32 32 33 34 36 36 36 37 36 36 36 37 36 37
33 34 35 36 38 39 40 41 39 39 39 39 39 38 36 35 34 33 32 33 33 33 34 33 34 34 37 36 36 36 36 36
33 34 35 36 37 38 39 40 39 38 39 38 36 35 35 33 32 32 32 33 33 33 33 33 34 37 36 36 35 34 35 34
33 34 35 37 37 39 39 39 39 37 36 35 35 34 33 32 31 31 34 35 34 35 36 36 36 35 36 37 34 33 33 33
33 34 36 37 38 38 37 38 37 35 34 32 31 31 31 30 31 33 34 33 35 35 35 35 34 36 36 34 33 31 27 26
35 36 36 37 37 37 36 35 35 34 33 31 29 29 30 31 31 30 31 30 28 28 28 27 25 24 22 20 19 20 22 22
36 36 35 35 36 35 32 32 33 32 31 29 28 29 29 28 29 27 24 22 20 18 17 17 17 17 17 16 18 19 18 17
36 35 35 33 31 28 29 32 32 30 30 28 28 27 27 26 25 23 21 18 17 16 16 17 17 17 17 21 21 20 19 18
37 33 30 28 26 27 29 31 28 29 29 27 26 26 28 26 22 19 16 15 16 17 17 17 17 16 23 23 22 19 17 16
35 31 28 27 26 26 29 28 27 27 27 26 24 27 28 23 20 15 15 15 16 16 16 16 17 18 21 22 22 20 18 17
31 29 27 24 22 24 28 29 26 26 25 24 25 27 27 22 18 15 15 15 16 16 16 18 19 18 23 23 21 19 18 18

GFSFLT1_sfc_30mbdewp_012.txt.gz
Dewpoint
37 38 41 43 45 44 51 52 48 46 49 47 45 43 43 44 45 44 44 46 43 44 43 44 46 44 44 45 46 46 46 46
41 42 42 46 47 49 50 49 45 44 44 43 43 43 42 43 43 42 41 43 42 42 41 41 41 41 43 43 43 42 43 44
39 44 48 47 46 45 44 43 42 42 42 43 43 43 42 41 44 43 43 42 40 38 39 40 41 41 42 43 44 42 41 41
38 41 43 44 44 42 42 42 42 43 43 42 41 41 41 41 41 41 42 41 39 38 37 40 40 41 40 41 42 41 41 41
36 41 43 43 43 43 42 41 40 42 42 41 41 40 41 42 44 43 42 38 39 37 36 39 40 42 40 42 40 41 41 40
37 39 41 43 44 44 42 40 40 41 42 42 42 44 44 43 42 41 39 39 37 36 37 39 41 40 41 42 40 42 42 40
36 38 40 42 43 43 42 40 39 40 42 43 40 39 40 40 40 38 37 36 36 36 38 39 40 41 41 42 42 41 40 40
36 36 37 39 40 41 41 42 41 40 39 40 42 42 41 39 38 37 36 35 36 36 38 39 39 39 39 39 40 40 39 39
35 35 36 37 38 39 41 41 41 40 41 41 43 41 39 38 38 36 36 35 36 37 38 37 39 40 39 39 38 38 37 37
33 35 36 36 37 39 41 40 41 41 41 40 40 39 39 37 35 36 35 37 36 36 37 37 38 38 38 37 37 36 37 37
34 35 36 38 39 40 42 41 40 39 39 38 37 37 37 35 35 35 36 36 35 35 36 37 37 37 37 37 38 38 36 35
34 36 37 39 40 40 41 39 39 38 37 36 35 35 34 34 34 35 35 35 35 34 34 33 33 34 37 37 37 37 34 32
35 37 38 37 37 39 38 38 37 36 35 34 32 33 32 32 33 32 32 32 33 31 30 29 28 29 28 29 30 29 29 29
35 37 37 36 36 37 36 36 34 34 33 31 31 30 30 30 30 31 31 30 29 25 23 22 21 21 21 20 20 23 23 22
36 37 36 35 34 33 33 31 33 34 31 30 30 30 29 28 29 29 27 26 23 21 21 21 22 20 19 21 21 22 22 21
36 36 35 32 31 30 29 29 32 34 32 31 30 29 28 29 30 28 25 23 20 20 20 21 21 20 19 22 22 21 21 20
35 34 32 29 29 28 27 27 30 35 34 33 31 32 29 29 30 27 23 21 20 20 20 20 21 19 23 23 24 22 21 21
34 31 30 28 24 22 22 24 29 33 33 30 33 34 33 31 29 24 20 19 20 21 21 21 21 23 24 25 24 22 21 19
32 28 25 23 22 22 21 21 21 22 26 30 36 34 32 27 26 23 20 19 20 20 22 22 23 22 23 24 25 22 20 19

GFSFLT1_sfc_30mbdewp_015.txt.gz
Dewpoint
45 47 49 50 52 57 58 58 56 51 48 47 45 44 45 45 44 44 44 42 41 40 40 42 40 41 41 41 41 42 43 43
47 47 49 50 49 49 47 46 44 45 42 41 41 41 42 43 42 43 41 40 39 39 40 40 42 41 41 41 42 41 41 41
44 45 45 45 44 43 43 42 42 43 43 44 43 43 43 42 42 44 44 42 40 38 38 40 40 42 41 40 39 41 42 42
43 43 43 43 42 41 41 40 41 42 42 41 41 41 41 43 44 42 42 39 37 37 38 39 40 41 39 39 41 41 40 41
42 42 42 42 43 41 41 41 41 41 41 42 41 44 43 43 42 42 39 38 36 38 38 39 40 40 39 42 43 42 41 40
41 42 43 43 42 41 41 41 41 42 42 42 43 39 40 42 41 38 37 36 37 37 37 38 39 41 41 41 41 40 40 39
39 41 42 43 43 42 41 41 41 42 43 41 40 41 40 39 38 36 35 37 37 36 39 39 40 40 40 41 41 40 39 39
37 40 41 42 42 42 42 42 41 42 42 43 41 40 39 38 35 35 34 35 35 37 38 39 38 39 39 38 38 38 38 37
35 36 36 39 39 41 41 41 41 41 41 41 40 39 39 37 34 34 34 37 36 36 36 37 38 38 38 38 37 37 37 37
35 37 38 40 41 41 41 41 40 40 38 38 37 39 36 34 34 36 36 36 34 35 37 37 37 37 37 37 37 37 37 37
38 38 38 38 40 41 40 39 38 38 39 37 36 36 36 35 36 34 34 34 34 34 34 34 34 34 35 36 36 35 35 35
37 38 38 38 38 39 39 38 37 37 35 35 33 33 34 34 34 33 32 33 32 33 31 30 27 28 28 30 31 33 33 30
37 38 37 36 36 36 35 35 36 36 35 34 32 34 31 31 31 31 31 30 31 32 26 23 23 22 23 22 23 25 24 23
37 37 37 35 33 31 31 32 34 33 34 33 32 32 31 31 28 31 30 30 26 23 22 22 22 22 21 23 23 23 23 22
36 36 35 34 32 30 31 30 30 33 34 34 34 35 34 31 30 29 27 26 22 21 21 21 21 22 23 22 21 21 21 21
35 34 32 30 30 30 27 24 27 35 34 34 34 36 33 33 34 32 34 26 22 20 20 21 22 22 22 23 23 22 22 21
34 34 31 30 26 23 22 24 25 32 30 29 36 35 35 35 35 36 31 23 20 19 20 22 23 22 25 25 25 23 22 21
33 32 31 24 23 23 20 20 21 21 20 32 36 37 36 36 36 35 24 20 19 19 22 23 22 24 26 26 25 24 22 21
31 31 23 22 21 19 18 19 18 18 29 30 34 34 35 35 36 32 21 19 19 22 23 25 24 24 25 27 29 27 23 22

GFSFLT1_sfc_30mbdewp_021.txt.gz
Dewpoint
53 57 57 57 57 58 58 58 56 51 47 46 46 45 44 44 43 42 41 40 40 39 39 40 40 38 38 38 38 39 39 40
48 50 52 52 53 55 55 55 51 45 45 43 43 43 44 45 43 40 39 39 38 38 38 38 39 38 39 40 40 40 41 42
47 48 49 52 50 48 43 43 43 43 43 46 47 47 46 44 39 38 38 38 38 37 37 38 39 39 40 40 41 40 41 41
46 47 46 44 41 41 41 41 42 43 44 44 44 44 45 42 39 37 38 38 38 39 39 39 40 41 40 41 40 39 38 39
43 41 40 40 40 40 39 40 41 42 42 41 41 40 41 42 39 37 38 38 38 39 39 39 40 39 39 41 40 39 38 37
41 40 40 40 41 41 41 41 42 42 42 42 43 41 41 39 37 36 37 38 38 38 37 37 36 37 37 37 38 37 38 37
42 42 42 42 42 42 42 43 43 43 43 42 41 40 38 36 35 35 35 38 37 36 37 37 37 37 36 36 37 36 36 36
42 42 42 42 42 42 41 41 42 41 41 39 39 38 37 36 35 35 36 37 36 33 37 37 37 37 36 37 36 36 36 35
40 40 40 40 41 40 40 39 38 40 39 38 38 38 37 36 36 36 35 36 34 34 35 37 37 37 36 37 37 35 35 34
39 40 40 39 39 39 39 38 39 38 38 38 38 38 38 36 36 36 36 35 34 33 34 35 34 35 33 35 34 31 32 33
37 38 39 40 38 37 36 36 36 37 38 37 36 37 38 38 36 36 36 34 34 33 33 33 31 28 27 27 26 27 30 25
36 36 37 36 34 33 32 33 33 36 36 36 36 34 34 35 36 35 34 33 34 33 33 33 25 24 23 23 23 26 24 23
36 35 35 34 32 31 31 29 27 31 34 34 32 33 34 33 34 34 34 33 33 32 30 28 25 23 23 22 22 24 22 21
35 35 33 32 32 31 27 27 30 33 29 27 29 33 35 35 35 34 32 32 33 33 34 30 24 23 23 23 23 22 21 22
33 33 32 31 31 28 23 23 26 26 24 28 31 33 33 32 32 32 32 35 35 34 34 27 25 24 24 22 21 22 22 22
32 32 32 32 28 22 21 21 21 24 24 30 32 33 34 35 34 35 36 37 36 34 30 23 24 24 22 22 23 23 23 23
31 31 31 27 21 18 18 18 19 22 28 31 34 34 35 34 35 36 36 36 29 31 25 24 23 22 24 26 29 27 25 24
30 31 27 22 19 18 16 17 20 21 29 31 32 32 32 32 34 35 35 34 34 26 24 24 24 23 27 28 26 26 24 24
29 23 20 20 18 16 17 18 19 21 30 31 32 32 32 32 34 33 31 29 28 24 25 24 24 25 23 21 25 22 20 21

GFSFLT1_sfc_30mbdewp_027.txt.gz
Dewpoint
54 56 57 58 58 58 58 59 58 55 52 50 48 48 46 45 45 46 45 42 42 40 40 41 39 38 39 38 37 35 37 37
54 56 58 58 58 58 58 57 57 53 50 47 46 46 48 47 42 42 40 40 40 40 39 39 39 38 38 38 35 34 31 37
54 55 57 56 57 58 57 56 51 49 47 47 48 48 46 41 40 40 40 40 39 38 39 39 39 35 37 37 38 33 34 38
53 54 55 56 55 55 56 53 47 46 48 48 47 44 41 38 38 38 39 39 38 40 40 39 38 37 35 37 38 37 32 34
52 51 47 44 43 45 47 49 46 47 46 45 45 43 43 43 40 38 38 39 39 39 39 39 38 37 35 34 35 36 34 29
45 41 41 41 42 43 43 44 43 44 45 45 44 43 41 39 38 39 39 39 39 40 39 38 37 35 35 34 34 33 33 31
40 41 41 41 43 44 45 44 44 44 43 44 43 41 40 38 38 38 39 39 40 40 38 38 38 36 35 34 36 36 33 33
41 40 41 42 43 44 44 43 41 42 42 42 41 41 41 39 39 38 38 38 38 39 38 38 37 37 36 36 36 35 34 29
42 42 42 43 42 41 41 41 40 40 40 40 41 40 39 39 39 39 39 38 38 38 37 37 37 37 36 36 36 34 35 30
42 42 42 41 40 41 40 39 39 39 40 40 40 39 39 38 37 38 38 38 37 38 36 35 35 36 36 36 33 32 30 28
41 41 41 40 39 39 38 37 36 38 40 39 38 36 34 35 36 36 37 38 38 37 36 36 35 35 33 31 28 27 27 26
40 39 39 36 35 34 35 33 33 36 37 36 32 31 33 34 34 35 35 35 32 34 35 35 34 31 31 33 29 26 26 25
39 38 35 33 32 32 30 30 33 34 29 27 29 32 33 31 31 31 32 31 33 34 34 33 33 34 32 32 26 26 25 25
36 35 34 33 32 32 28 31 32 27 24 24 27 31 31 31 31 31 31 32 34 35 34 35 35 34 27 26 26 24 23 23
35 34 32 32 32 31 27 26 27 25 22 24 29 32 33 32 32 31 32 34 36 36 36 32 31 26 25 24 23 24 26 25
33 33 32 32 32 28 24 23 23 24 24 24 30 34 34 32 31 32 33 35 35 33 30 27 26 25 23 26 27 25 23 20
31 32 33 32 30 25 22 21 21 23 23 24 32 34 32 31 32 33 33 34 33 32 30 28 25 25 29 25 24 22 19 16
31 32 31 30 25 22 20 19 21 22 23 27 31 32 30 31 31 30 29 33 32 30 27 25 25 25 23 21 21 20 17 15
31 31 29 25 21 20 19 19 20 21 24 29 30 30 30 30 29 27 28 32 30 30 27 25 24 20 21 20 20 17 16 15

GFSFLT1_sfc_30mbdewp_030.txt.gz
Dewpoint
52 51 49 52 55 57 58 58 58 57 56 56 53 52 49 46 45 47 45 44 44 42 42 43 40 38 35 35 34 32 30 30
54 55 55 55 57 58 58 58 58 56 55 51 48 47 46 47 44 44 43 42 41 42 40 39 37 36 36 35 33 30 29 31
54 55 55 56 56 57 58 57 57 56 53 50 47 46 46 44 42 43 42 41 41 40 39 37 35 33 35 34 33 30 27 29
53 54 55 56 56 57 56 56 55 52 49 49 48 48 44 41 41 40 41 41 39 40 38 35 34 33 31 34 33 31 29 28
53 54 55 55 55 56 55 52 48 48 49 46 46 42 42 44 42 41 40 40 38 36 35 37 37 35 35 33 30 33 30 28
50 49 49 48 50 52 53 50 46 46 46 45 45 44 43 41 40 39 39 38 39 37 37 38 38 37 35 34 33 33 30 28
43 42 41 42 44 47 48 45 44 45 45 46 44 43 40 37 36 33 31 32 34 35 39 39 39 37 36 34 34 33 31 29
39 40 39 41 44 45 45 43 43 44 44 41 39 37 35 31 32 31 33 32 32 31 36 38 38 37 37 35 33 33 31 29
39 39 40 42 43 44 43 42 41 41 39 37 36 35 34 33 35 36 31 29 30 34 37 35 34 35 34 33 33 32 32 30
40 41 42 43 43 43 42 39 37 36 37 35 36 37 37 34 29 29 29 31 29 27 30 30 31 31 32 33 32 32 31 29
41 41 43 43 42 42 39 35 34 36 35 37 36 34 28 26 27 27 26 26 26 25 25 25 28 30 31 33 32 29 30 29
41 42 42 41 39 36 34 32 32 33 33 34 31 26 26 26 25 25 26 27 26 25 27 28 28 29 31 31 31 30 27 26
41 41 40 37 34 33 32 30 30 31 30 27 25 24 24 24 25 25 27 27 27 28 30 30 29 30 31 33 30 26 26 24
41 40 37 34 32 31 29 30 31 28 23 22 21 23 25 24 26 27 28 28 28 30 30 31 31 31 32 27 26 27 25 24
39 38 36 33 31 31 29 30 28 24 21 19 21 24 26 28 28 29 28 28 29 29 29 29 29 27 27 25 25 24 25 23
37 36 34 32 31 31 29 27 26 23 20 21 22 26 30 29 29 28 28 29 30 29 29 31 30 28 24 27 26 24 22 20
36 35 33 30 30 30 27 25 22 21 21 22 22 27 29 28 28 27 27 27 28 29 29 27 27 25 26 24 22 20 20 17
35 33 32 30 30 28 25 22 21 21 21 21 24 28 27 26 25 25 25 26 28 28 28 29 27 27 23 22 21 18 17 15
35 33 31 30 27 24 21 19 19 21 20 22 25 26 25 24 25 26 26 26 26 27 27 27 26 24 21 20 20 18 18 17

GFSFLT1_sfc_30mbdewp_033.txt.gz
Dewpoint
46 45 42 44 51 56 56 58 58 57 57 57 56 55 53 51 48 47 47 45 46 45 45 45 43 40 39 39 38 34 30 27
50 48 46 49 54 56 57 58 58 57 55 53 52 51 48 48 46 46 46 45 44 44 42 41 41 37 39 38 34 31 29 29
50 51 52 52 55 56 57 58 58 55 54 52 50 48 47 46 45 45 44 43 43 41 42 39 38 36 33 32 34 33 30 29
50 51 53 55 55 56 57 57 57 54 51 49 48 48 47 44 44 43 43 43 41 40 39 38 36 33 30 33 33 32 29 29
50 52 54 55 56 57 56 55 53 51 48 46 45 42 41 42 42 42 42 41 40 38 36 36 36 35 34 33 31 32 31 28
50 52 54 54 54 53 52 51 48 47 47 46 46 43 45 44 43 43 42 41 40 36 36 37 36 35 34 34 34 33 31 29
49 49 49 48 51 52 51 46 45 46 46 46 45 45 43 40 38 35 31 30 30 32 33 34 35 34 34 33 33 32 31 32
43 42 40 43 47 49 49 44 44 45 46 45 45 42 38 34 32 30 32 30 29 28 31 33 32 32 31 31 35 34 33 33
39 38 38 41 44 44 43 43 43 44 44 40 37 33 32 31 33 32 28 28 29 30 29 29 30 30 29 30 32 34 33 34
37 38 39 41 43 44 43 43 42 42 38 35 35 34 34 31 29 28 27 28 25 23 26 25 25 25 27 28 30 33 33 32
38 38 40 42 43 44 44 42 39 37 34 34 35 35 31 27 27 27 27 26 26 26 25 25 26 27 27 27 28 31 32 34
39 40 42 43 43 44 42 38 34 33 33 35 34 30 27 27 26 26 25 26 26 25 25 26 27 26 26 30 30 32 30 29
39 41 42 43 43 41 38 34 31 33 33 31 32 28 25 25 25 24 26 27 26 25 26 27 27 28 30 31 30 27 28 27
39 41 42 42 41 38 35 32 31 32 32 29 25 24 25 25 23 25 27 27 25 25 27 27 27 27 28 28 27 27 27 27
39 41 41 40 38 36 34 31 32 34 27 26 21 23 26 24 25 27 27 26 26 27 27 27 27 27 26 26 26 25 26 24
39 40 40 39 37 35 32 31 33 29 31 22 21 24 25 25 27 28 27 26 27 27 26 27 28 28 26 27 25 24 20 18
38 39 39 38 36 34 31 31 30 31 26 22 23 22 23 25 26 27 25 24 25 26 26 27 26 25 26 23 22 22 20 17
37 38 38 37 34 33 31 31 31 25 21 22 22 21 24 24 24 23 23 24 26 26 26 27 29 28 24 22 21 20 19 18
36 37 37 36 34 32 30 28 24 22 22 21 19 22 23 23 22 22 24 25 25 25 26 28 29 26 23 21 21 20 19 19

GFSFLT1_sfc_30mbdewp_036.txt.gz
Dewpoint
38 40 43 48 53 55 56 59 60 59 59 58 57 55 55 54 52 50 48 47 48 48 47 47 46 43 42 42 41 38 35 34
44 44 44 47 56 57 58 59 59 58 57 54 53 53 51 50 49 48 48 48 46 45 46 45 43 42 40 40 38 37 36 36
49 48 46 49 57 57 59 58 58 57 56 54 54 51 50 49 49 48 47 46 45 45 43 42 41 39 37 38 38 37 35 35
49 49 51 53 57 58 59 58 58 57 55 53 51 50 49 46 47 46 46 45 44 41 41 39 39 38 37 38 37 36 34 34
49 51 52 54 58 58 59 58 57 57 53 49 48 48 46 45 46 46 45 43 42 40 38 38 39 39 39 39 36 38 35 34
47 51 53 56 58 58 58 58 56 54 49 48 49 47 47 46 46 45 45 45 43 41 38 39 40 40 40 39 39 39 37 35
48 51 54 55 57 57 58 56 50 49 48 48 47 47 44 44 43 42 39 36 35 36 36 37 37 37 37 37 37 38 36 36
48 50 52 53 54 54 51 47 46 48 47 47 48 46 41 37 35 34 34 33 32 34 34 34 34 34 34 35 35 37 37 36
48 48 47 48 50 51 49 46 45 46 47 46 44 39 36 33 37 35 32 31 32 32 30 31 31 31 31 32 35 35 36 36
44 42 43 45 47 48 47 44 44 46 45 41 38 36 35 35 36 32 31 31 28 30 30 30 29 30 32 32 32 33 35 35
40 39 41 43 45 46 46 45 44 45 40 39 37 38 36 35 30 30 29 28 28 29 29 28 29 30 31 31 33 33 34 35
39 39 40 43 45 46 46 45 43 40 37 37 37 36 33 30 30 29 27 28 28 28 27 28 29 29 32 31 33 32 31 31
39 39 41 42 44 45 45 44 40 37 36 38 36 33 33 31 29 28 28 28 29 28 27 27 29 29 29 29 31 31 29 28
39 40 41 43 44 44 44 42 37 35 35 34 33 34 28 27 29 27 28 28 28 27 27 29 29 28 27 28 28 29 29 28
38 39 41 43 43 44 42 39 35 34 33 33 30 28 28 28 27 27 29 29 28 28 29 29 29 29 28 28 27 28 27 25
36 38 42 43 43 42 40 36 34 35 34 30 30 28 26 27 27 29 30 29 28 28 28 29 28 28 28 28 26 25 24 22
36 38 40 42 42 40 38 35 35 32 33 31 28 26 24 25 27 29 29 28 27 28 28 28 28 27 26 25 23 22 23 22
34 37 39 40 41 39 37 34 32 34 30 29 25 24 23 25 25 25 25 25 28 28 29 29 29 30 26 24 21 21 22 22
30 34 38 39 39 37 35 32 34 29 26 26 25 21 23 24 25 25 25 26 28 28 28 28 29 30 27 24 21 20 22 22

GFSFLT1_sfc_30mbdewp_039.txt.gz
Dewpoint
44 47 48 51 53 54 59 58 57 57 57 57 57 56 56 54 53 51 48 48 49 49 48 45 45 43 42 41 39 38 36 36
43 44 50 52 55 56 59 57 58 57 57 57 55 54 53 51 50 48 48 48 47 48 47 46 43 40 38 39 38 36 35 36
43 44 51 53 55 59 59 58 58 57 57 56 54 52 50 49 48 49 48 46 46 44 42 41 40 37 38 37 37 36 36 34
46 46 53 56 56 58 58 58 57 56 57 55 53 50 50 48 48 47 45 45 44 42 41 39 38 38 36 37 36 37 34 34
48 48 53 56 58 58 59 58 57 56 57 52 49 48 47 46 46 46 45 42 41 41 40 39 39 39 38 39 38 38 36 34
49 50 52 58 58 59 59 59 58 57 57 50 48 48 47 48 47 45 44 42 42 41 41 40 38 38 38 38 36 38 38 36
50 51 56 58 59 59 58 57 57 57 52 50 48 48 45 45 45 45 45 44 38 36 36 35 35 34 33 34 35 35 36 36
51 54 55 56 56 56 57 57 55 51 48 49 48 46 44 43 42 37 35 33 35 33 31 31 32 32 32 32 32 33 35 36
52 53 54 55 55 56 57 55 48 48 48 47 43 37 35 37 35 34 32 33 32 30 31 30 29 30 31 31 31 32 34 36
50 51 52 54 54 52 48 47 47 47 47 43 37 37 36 36 35 32 33 31 31 30 29 29 29 30 31 30 33 34 35 35
46 46 48 49 49 50 48 46 46 47 43 37 36 36 35 36 32 31 31 30 29 29 28 28 28 29 31 32 32 32 33 33
43 42 45 46 47 47 47 46 46 43 39 37 38 36 35 31 31 32 30 30 29 28 28 27 27 29 31 30 31 31 31 30
41 40 43 44 45 46 46 46 43 39 38 38 36 34 33 31 32 31 29 29 30 28 28 27 29 31 28 28 30 30 28 28
40 39 41 44 45 46 46 44 39 37 38 36 34 34 32 32 32 33 30 30 29 28 28 28 30 30 27 28 27 29 29 28
40 40 41 43 45 46 45 43 38 37 34 33 33 33 31 31 31 30 30 30 28 28 28 29 31 30 28 29 28 28 26 23
40 40 42 44 45 45 45 42 38 34 34 33 32 33 33 33 33 31 31 29 28 28 28 30 30 29 29 29 27 25 23 23
39 44 44 45 45 45 43 38 36 34 32 32 34 35 35 29 29 29 29 29 28 28 29 29 29 28 27 27 24 23 22 21
33 38 43 44 44 43 39 36 35 35 32 32 32 30 28 28 27 26 26 25 27 28 28 30 29 29 28 26 23 21 21 21
31 33 39 41 41 37 35 35 35 30 30 31 32 31 27 27 26 27 27 28 27 29 28 28 28 31 29 27 23 21 21 22

GFSFLT1_sfc_30mbdewp_042.txt.gz
Dewpoint
54 53 54 53 53 53 59 57 57 57 57 56 56 56 55 55 53 50 50 49 48 48 46 45 44 43 41 41 37 37 36 35
51 50 51 52 52 56 58 56 56 56 55 54 54 54 53 53 52 50 48 49 49 48 46 43 41 38 38 39 37 35 35 35
47 48 50 51 54 57 57 56 56 56 55 55 54 54 52 51 50 48 48 48 47 44 43 40 38 38 37 37 36 36 36 35
44 48 50 52 56 58 57 57 56 56 56 55 53 51 50 49 48 48 48 47 44 43 41 40 38 38 36 37 37 36 34 35
44 50 50 53 57 58 58 57 56 56 56 55 52 49 48 48 47 47 46 45 43 42 41 39 39 39 39 40 39 38 37 36
46 51 52 54 58 58 58 58 57 55 56 54 51 49 49 47 47 46 44 42 42 42 41 40 39 38 36 34 34 35 38 36
46 52 55 56 58 58 58 58 57 57 56 53 51 49 48 47 46 45 43 44 39 38 36 36 34 33 33 33 32 32 33 35
50 54 56 57 58 58 58 58 57 57 56 52 50 49 47 47 46 45 43 37 35 34 33 33 32 31 31 31 30 31 32 34
51 54 56 57 58 58 58 57 56 55 52 50 49 46 45 44 42 40 37 35 33 33 32 31 30 31 30 31 33 34 35 34
52 54 55 56 56 57 57 57 53 50 49 44 41 41 40 37 35 36 35 34 32 32 30 29 29 29 31 33 33 32 33 33
52 53 54 55 55 54 54 54 50 49 45 41 39 39 39 37 37 35 33 32 32 31 29 28 28 29 33 31 30 31 31 32
50 51 52 53 53 50 48 48 48 46 40 39 39 40 39 37 36 33 32 32 32 33 32 27 27 29 32 30 30 31 30 30
47 49 50 50 50 48 46 46 47 43 39 37 38 38 35 34 33 32 33 32 33 33 29 27 29 30 29 28 29 30 29 28
44 45 47 48 48 48 47 46 44 40 38 37 36 34 32 33 34 34 33 31 31 29 28 28 29 30 29 29 28 29 29 28
43 41 44 46 46 47 46 44 41 40 38 36 35 34 33 33 33 32 31 31 29 28 28 29 30 31 30 29 28 29 29 24
42 41 41 44 45 47 46 43 41 39 37 36 37 35 34 34 34 32 32 30 29 28 29 29 30 31 30 29 29 27 25 24
41 41 42 44 46 46 46 43 40 38 37 36 37 36 32 30 30 31 31 30 29 28 26 29 29 30 29 29 29 26 24 22
39 43 44 46 46 47 44 39 38 36 35 36 33 31 30 31 30 29 28 27 27 26 29 29 29 31 29 29 28 24 22 22
38 40 41 42 39 39 38 37 34 33 34 33 30 30 30 31 32 30 32 29 28 28 28 29 30 29 30 30 28 23 22 21

GFSFLT1_sfc_30mbdewp_048.txt.gz
Dewpoint
54 56 55 54 55 57 57 58 57 56 57 57 57 58 57 56 54 53 51 49 47 46 47 46 43 42 39 38 36 36 34 32
57 57 57 55 55 56 56 57 57 56 56 56 56 56 55 54 52 51 50 49 47 47 47 44 43 41 39 36 36 35 35 34
56 57 57 55 55 55 56 57 56 56 57 55 55 54 54 54 52 50 49 48 48 46 44 43 41 39 38 37 36 36 36 34
55 55 56 56 55 55 56 57 56 56 56 54 53 52 52 51 50 49 48 49 48 45 43 41 39 38 37 36 36 35 34 35
54 54 55 55 54 54 56 56 56 56 55 54 52 52 50 51 50 48 48 48 47 45 42 39 39 39 38 38 38 37 36 33
53 54 53 54 54 54 56 56 56 56 55 54 52 51 51 50 48 48 48 46 44 42 41 40 40 38 36 34 34 35 37 35
50 53 52 52 53 54 55 56 56 56 55 54 53 52 51 49 48 46 46 44 43 41 40 38 35 34 31 31 33 32 31 33
48 49 49 50 52 54 55 56 56 56 55 55 54 53 52 50 48 46 44 41 39 38 36 34 33 34 37 35 31 30 32 33
45 47 49 50 53 55 56 56 56 56 56 55 55 54 53 51 49 46 43 39 37 36 35 37 40 37 33 33 32 34 34 34
44 47 49 51 54 55 56 56 56 57 57 56 55 54 53 50 49 45 40 38 37 37 41 41 34 32 37 35 33 34 33 32
45 49 52 53 54 55 56 57 56 57 57 56 54 52 51 49 46 44 40 38 37 41 41 34 34 38 35 33 32 33 31 31
48 50 54 55 55 56 56 56 57 56 54 53 52 50 48 47 46 45 42 39 41 40 35 36 38 34 32 32 32 31 31 30
49 51 53 54 55 56 56 56 56 55 51 49 48 46 46 46 44 41 40 40 37 36 40 38 33 30 30 32 31 30 31 30
49 51 52 53 54 55 55 56 54 50 48 46 46 45 44 41 39 39 37 37 38 37 36 33 30 30 31 32 32 30 30 30
47 48 50 52 52 53 52 52 50 47 46 46 44 43 41 39 38 37 37 36 35 34 34 31 32 34 33 32 31 30 30 30
45 46 46 49 50 50 48 48 46 45 44 42 42 41 39 37 35 35 36 35 32 31 33 37 36 34 31 31 31 30 29 28
43 43 43 45 48 48 46 45 43 43 42 40 38 37 36 35 33 32 32 32 34 38 39 38 37 34 31 31 31 30 30 29
40 40 42 45 46 44 43 41 41 39 38 36 35 34 33 33 33 34 36 38 40 39 38 37 33 30 29 30 31 31 30 29
35 36 37 38 38 37 37 36 35 34 34 33 33 34 35 36 37 38 39 39 38 37 34 31 29 29 30 30 30 30 30 28

GFSFLT1_sfc_30mbdewp_051.txt.gz
Dewpoint
53 54 54 53 54 55 57 59 60 58 58 58 58 58 59 59 58 56 55 54 52 50 50 47 45 43 42 41 39 39 36 35
53 53 54 53 54 55 56 58 59 58 57 56 56 56 58 58 57 56 54 51 50 49 48 47 45 43 42 41 40 39 37 38
54 54 54 53 53 55 55 57 58 58 57 56 56 57 58 58 56 54 53 51 49 49 48 46 45 43 42 40 40 38 38 37
55 55 55 55 54 54 55 56 57 58 57 56 55 56 56 55 54 54 52 51 49 48 48 46 44 43 40 40 40 39 37 38
55 56 56 56 56 55 55 56 57 58 57 55 54 54 55 55 54 53 51 50 49 47 46 45 43 41 40 40 40 40 38 34
53 55 55 57 57 56 56 57 57 57 57 56 55 55 55 54 53 52 51 50 48 46 45 43 42 41 42 41 40 38 36 33
52 54 55 55 57 56 57 56 56 57 57 56 55 54 54 53 52 51 50 48 48 46 43 43 42 41 39 38 38 39 35 35
49 52 54 54 55 55 56 56 56 57 56 56 55 55 54 52 52 51 48 47 45 44 43 42 39 37 37 40 37 34 32 33
48 50 52 53 54 55 55 55 56 56 56 56 56 56 55 53 53 51 48 47 45 43 41 38 36 39 41 37 37 35 36 36
45 48 51 52 52 54 55 55 55 56 56 56 56 56 55 55 54 52 49 46 42 41 39 37 41 39 36 39 37 35 36 37
43 46 48 51 52 54 55 56 55 56 56 56 56 56 56 55 54 51 47 44 41 40 39 41 37 37 40 37 35 35 35 35
45 47 49 51 53 54 55 55 55 56 56 57 57 55 55 54 51 49 46 43 40 41 42 37 36 41 39 34 33 33 34 33
47 49 51 53 53 54 54 55 55 56 56 56 55 53 52 51 49 47 44 41 41 42 38 37 41 36 33 33 35 32 33 32
49 51 52 53 54 55 55 56 56 56 54 52 51 50 49 49 46 44 43 42 40 39 39 39 36 36 35 35 34 34 34 33
48 49 51 52 54 54 55 55 53 50 49 49 48 47 46 44 42 41 40 40 39 39 38 38 38 34 34 34 35 34 33 32
45 46 48 51 52 52 51 50 49 49 47 45 45 44 41 40 38 38 39 38 38 36 35 35 37 37 36 36 35 34 32 32
43 44 45 48 49 48 47 46 45 45 44 41 39 38 36 35 35 34 33 37 36 37 38 39 39 39 38 37 34 32 31 31
40 41 42 44 44 44 43 42 41 39 38 36 35 34 33 34 36 38 38 38 39 39 40 40 40 39 35 31 30 31 32 31
36 37 38 39 39 39 38 37 36 35 34 34 35 36 37 39 39 39 40 40 39 39 38 38 35 32 30 30 30 30 29 29

GFSFLT1_sfc_30mbdewp_057.txt.gz
Dewpoint
51 48 47 47 47 48 49 51 52 53 54 54 51 51 52 49 49 54 58 58 59 56 53 53 53 51 47 46 46 45 44 39
51 49 48 47 48 49 50 51 52 50 50 50 49 48 49 49 51 55 60 59 58 60 57 55 55 49 48 47 46 45 43 40
49 50 49 49 48 48 48 48 48 49 48 48 47 47 47 51 52 55 59 59 57 58 58 56 54 50 48 48 47 46 44 41
48 49 49 50 49 49 48 49 50 50 50 49 48 47 46 47 50 54 59 59 57 57 57 55 53 51 49 48 46 46 43 42
48 49 49 49 49 50 51 50 50 51 52 50 49 47 45 46 50 53 58 58 58 58 56 57 54 52 50 49 47 47 44 41
46 47 48 49 50 51 52 52 52 52 52 52 51 50 47 47 50 53 57 58 57 56 56 56 54 52 49 48 47 47 44 42
44 47 48 48 50 52 52 51 51 50 51 53 54 52 51 48 48 58 57 57 57 56 55 54 54 52 50 49 48 46 44 41
40 43 48 49 50 51 52 52 51 51 52 53 54 55 55 54 54 57 56 56 56 55 54 52 52 51 52 49 46 42 42 41
41 42 44 48 51 53 54 53 53 52 53 55 56 57 57 58 57 56 56 56 56 55 52 52 52 48 44 45 45 43 40 38
38 42 43 46 50 53 56 56 55 54 55 56 59 60 59 59 59 58 57 57 56 54 53 51 47 47 47 46 43 40 40 39
36 38 43 45 48 52 55 57 56 56 57 57 58 59 60 59 59 58 57 57 54 52 50 48 47 46 46 43 43 41 39 41
37 39 40 44 47 51 55 56 56 56 56 58 58 59 59 58 58 58 57 54 51 49 47 47 45 45 43 43 41 39 39 40
40 41 41 44 48 50 52 54 55 55 55 57 58 58 58 58 57 56 54 51 48 47 46 46 43 43 43 41 38 38 39 37
42 45 46 46 48 49 51 52 53 53 54 57 56 55 54 53 51 49 48 46 46 46 44 42 41 42 41 39 38 39 40 41
35 40 45 48 50 51 53 55 56 55 55 53 52 52 50 49 48 46 45 45 44 43 42 41 41 40 39 39 40 41 41 39
37 39 44 49 52 53 55 54 53 52 51 50 49 48 47 47 46 45 44 43 42 41 41 40 39 39 40 41 41 39 40 39
40 44 48 51 53 53 53 51 50 49 47 45 45 45 45 45 44 43 42 41 41 40 40 40 40 40 39 38 38 39 38 34
42 46 49 50 50 51 50 48 47 45 44 43 43 42 41 41 40 40 39 39 39 39 40 40 40 40 39 39 39 36 30 29
44 46 47 47 47 46 46 45 43 42 41 40 40 40 39 40 40 40 40 41 41 40 40 40 39 36 36 33 30 28 26 25

GFSFLT1_sfc_30mbdewp_060.txt.gz
Dewpoint
51 52 51 50 51 51 52 53 52 52 51 50 53 55 53 53 52 55 58 58 55 56 56 55 55 53 51 49 48 49 48 44
48 51 50 49 51 51 51 52 54 53 51 52 53 53 54 54 52 53 59 59 59 58 56 56 56 54 51 50 50 47 46 43
48 47 48 48 50 50 51 52 52 53 53 53 53 51 52 53 52 53 58 60 60 59 59 58 57 55 52 50 49 47 46 46
49 48 48 48 48 49 51 52 52 53 53 51 51 50 50 50 52 53 59 60 60 59 60 59 58 56 53 51 50 48 46 47
49 49 49 50 50 51 51 51 51 52 51 49 48 48 48 49 51 53 58 60 59 58 58 57 57 56 55 54 51 49 48 44
49 49 50 50 51 51 50 50 50 51 51 52 52 50 49 48 50 52 59 59 59 58 58 58 57 58 57 53 51 50 49 47
48 49 50 50 51 52 52 52 52 52 52 53 54 53 52 50 51 53 58 59 58 58 58 57 57 56 53 52 53 51 52 47
46 48 49 50 50 51 53 53 52 53 53 55 55 54 56 52 52 55 57 58 58 57 57 56 56 54 53 53 52 49 47 45
42 45 47 48 50 52 52 52 52 53 53 54 56 56 56 57 57 56 57 58 58 58 58 55 53 53 51 49 47 48 47 44
42 42 47 48 50 52 54 53 53 52 52 54 56 57 58 58 58 58 58 58 58 57 55 53 51 49 49 49 49 44 40 40
34 41 44 49 51 53 54 54 53 54 55 56 57 58 59 58 60 60 59 57 56 55 54 51 49 49 48 46 43 43 41 42
35 37 43 46 50 52 56 56 56 56 56 58 58 59 60 60 59 59 58 56 54 53 51 48 48 47 45 44 42 41 39 39
38 38 39 45 47 51 55 57 57 57 57 58 59 60 60 59 58 57 55 53 51 49 48 47 46 44 44 42 40 39 39 39
39 42 41 42 46 49 55 56 56 58 58 59 58 56 55 53 52 50 49 48 48 47 47 44 44 43 42 41 39 39 39 39
40 44 45 45 47 49 52 56 56 56 56 55 53 51 50 49 48 47 47 47 45 44 43 43 43 42 41 40 39 39 41 41
34 41 46 49 51 56 55 54 53 53 52 50 49 48 48 47 46 45 45 44 43 42 42 42 41 41 40 39 41 42 40 39
34 40 46 49 55 54 53 51 50 49 48 48 48 48 47 46 45 43 42 42 42 42 41 40 40 40 41 41 40 39 39 39
34 40 48 52 54 52 51 50 49 47 46 46 46 46 45 45 43 43 42 41 41 40 40 40 40 40 39 39 38 39 35 31
40 49 52 52 52 51 49 48 47 46 45 44 43 43 41 41 40 40 41 41 41 41 41 40 40 38 37 34 30 29 30 30

GFSFLT1_sfc_30mbdewp_063.txt.gz
Dewpoint
51 51 51 51 51 53 53 53 52 52 51 50 50 52 54 53 53 54 55 55 57 55 55 55 54 52 51 50 49 48 49 45
51 51 50 51 50 52 52 52 51 51 50 49 48 50 53 53 54 53 57 57 56 56 56 56 55 52 52 49 48 47 47 46
51 51 50 50 50 51 52 51 51 50 50 49 49 51 53 54 54 53 57 58 58 57 56 57 57 55 51 50 49 48 47 47
51 50 50 50 51 51 51 51 51 49 49 49 52 53 53 53 53 52 57 58 59 59 59 58 58 56 53 51 50 48 46 47
49 49 49 50 50 50 50 51 52 51 51 50 51 52 50 50 52 53 56 59 59 59 59 59 58 57 55 53 51 50 48 47
47 47 47 48 49 50 50 51 51 51 52 53 52 50 49 50 50 52 54 59 59 58 58 57 57 57 55 54 53 51 52 51
48 47 48 47 48 49 50 51 50 50 51 52 52 49 50 50 50 51 55 59 59 58 58 57 57 57 57 55 53 53 52 49
49 48 48 49 48 49 50 50 50 50 51 51 51 53 52 50 50 52 57 58 58 58 58 57 57 56 54 53 53 52 50 47
49 49 49 49 50 50 50 50 50 50 50 51 51 54 56 54 52 54 56 57 58 58 58 57 56 54 53 52 50 49 47 46
48 49 50 50 50 50 51 50 50 51 51 53 54 54 55 56 55 56 56 58 58 57 58 56 54 52 50 49 48 47 46 43
47 48 49 50 50 51 51 52 52 52 52 54 54 57 56 56 58 58 59 59 59 57 55 52 50 50 49 48 46 44 42 42
40 45 49 49 50 51 52 52 52 52 53 53 54 56 57 58 59 59 56 57 56 54 52 50 49 48 47 46 44 42 41 41
37 40 44 48 48 49 52 53 53 54 54 54 57 59 59 58 58 58 56 54 53 51 50 48 48 46 45 43 42 41 40 40
39 40 41 46 49 50 52 55 58 59 60 59 59 58 56 53 53 51 51 50 49 48 47 46 45 44 43 42 41 41 40 40
40 42 43 47 55 56 57 59 56 57 57 55 53 52 50 49 49 48 48 47 47 46 45 44 44 43 42 41 40 40 39 40
42 44 45 54 54 53 53 53 53 53 52 51 49 48 48 47 46 46 45 44 44 44 43 43 43 42 41 40 39 39 41 41
41 46 51 54 53 52 51 51 50 51 50 49 48 47 46 45 44 44 43 43 42 42 42 42 41 40 40 40 41 41 39 38
39 47 54 54 53 51 50 49 49 49 49 48 47 46 45 44 43 42 42 42 41 40 40 40 39 39 40 40 39 38 38 31
47 50 55 53 51 50 49 47 47 47 47 47 46 45 44 43 42 42 41 40 39 39 38 39 39 39 39 38 35 31 29 26

GFSFLT1_sfc_30mbdewp_066.txt.gz
Dewpoint
50 51 52 53 53 53 54 53 52 52 52 52 50 50 51 52 52 54 54 54 56 55 55 54 53 52 50 50 48 48 48 46
51 51 52 51 53 53 53 52 51 51 50 50 48 45 49 50 52 53 55 55 57 55 55 55 53 51 51 49 49 48 47 48
51 50 50 50 52 52 52 52 51 50 49 49 47 46 50 52 51 52 54 56 56 56 55 56 55 53 52 50 49 48 48 47
50 50 50 50 50 52 52 52 51 51 50 49 48 49 51 50 51 51 54 57 57 56 56 57 56 56 53 51 50 48 47 48
50 49 49 49 49 51 52 51 51 51 50 48 47 47 47 47 47 49 53 56 58 58 57 57 57 57 55 52 52 50 48 47
50 50 49 50 49 50 51 51 50 50 49 48 47 48 49 51 52 52 52 55 58 58 58 58 58 58 57 55 52 51 50 49
50 50 50 50 50 50 51 50 50 49 49 48 48 49 51 52 51 51 52 54 58 58 58 58 58 57 56 55 54 52 51 51
50 49 48 49 49 49 49 49 49 50 49 49 50 51 52 51 50 50 50 53 56 58 58 57 57 57 56 55 53 52 51 50
47 48 48 48 47 48 48 48 49 49 49 49 51 52 53 52 51 51 52 53 55 58 58 57 57 56 55 54 53 52 50 48
48 47 47 47 46 47 48 48 48 48 48 49 51 52 52 53 53 53 54 56 57 57 57 57 56 55 53 52 51 49 48 48
49 49 48 48 48 48 48 49 48 47 48 49 50 51 52 55 56 55 56 58 58 57 57 56 54 52 51 50 49 47 46 44
46 49 50 49 49 50 50 50 50 49 50 50 50 52 55 56 57 58 58 59 59 58 56 53 52 50 49 49 47 45 44 43
45 47 49 50 50 50 50 52 51 51 52 53 54 57 58 58 58 58 58 57 56 55 53 51 50 49 47 46 44 43 42 41
39 42 46 49 50 50 50 52 54 55 57 57 56 57 58 58 58 57 56 55 52 51 50 49 48 46 45 44 43 42 42 42
39 41 44 48 49 49 51 54 55 56 55 57 58 58 57 56 55 53 52 51 50 49 48 47 45 44 44 43 42 42 41 40
39 44 52 53 53 53 54 56 56 54 54 56 54 53 54 52 50 49 48 48 47 46 45 44 44 43 43 42 41 40 39 40
40 45 53 53 53 54 55 56 55 54 52 50 50 49 49 48 47 47 46 45 44 44 43 43 43 42 41 40 40 40 41 39
41 46 52 52 52 52 52 52 52 51 50 49 48 48 47 46 45 45 43 43 43 42 42 41 40 40 40 40 40 39 36 30
40 47 53 53 51 51 50 50 50 50 49 48 47 46 45 44 43 42 42 42 41 41 40 39 39 39 39 38 35 30 26 26

GFSFLT1_sfc_30mbdewp_069.txt.gz
Dewpoint
51 52 53 54 54 54 54 55 55 54 53 53 51 52 52 54 55 54 53 52 53 51 52 52 52 52 50 49 48 48 45 43
51 52 51 52 53 53 53 53 53 53 52 53 50 49 49 52 53 55 55 55 55 53 54 54 54 52 50 50 48 47 47 47
50 51 51 51 53 53 53 52 52 51 51 51 50 47 48 51 51 52 54 55 56 56 55 55 53 52 51 50 49 48 47 48
50 50 50 51 52 52 52 51 51 50 50 50 48 47 47 47 49 50 51 53 55 55 56 55 55 53 51 51 50 48 47 49
50 50 49 49 51 52 52 52 51 50 50 48 48 46 43 43 44 47 48 52 54 56 56 56 56 55 54 52 52 50 49 48
50 50 50 50 50 51 52 52 51 51 50 49 48 47 46 45 46 47 48 51 54 56 57 56 56 56 56 54 52 51 51 49
50 50 49 49 49 50 51 51 51 51 50 50 48 47 47 47 49 49 50 51 53 56 57 57 57 57 56 55 54 52 51 50
50 50 49 49 49 49 50 51 50 50 50 49 49 47 48 48 49 50 49 49 52 54 56 57 57 57 57 56 54 53 51 51
50 50 50 49 49 49 49 50 50 50 50 49 49 48 48 50 52 52 52 51 52 54 57 57 57 57 56 55 54 53 52 51
49 50 50 49 49 49 49 49 50 49 49 49 49 49 49 50 52 53 53 53 53 55 56 57 57 57 57 56 54 53 51 50
48 49 50 49 49 49 49 49 48 49 49 49 49 49 51 52 53 54 54 54 55 56 57 57 56 56 54 53 52 50 49 48
49 48 48 49 49 48 48 48 47 47 48 48 49 49 51 53 53 54 55 57 57 57 57 57 56 54 53 51 50 48 47 46
47 49 49 48 48 48 48 49 48 49 47 48 49 50 51 52 53 56 57 57 58 58 57 56 53 52 51 50 48 46 46 45
45 45 50 49 48 48 49 49 50 51 50 49 49 50 51 52 55 57 57 57 56 56 55 53 51 50 48 47 46 45 44 43
41 45 48 50 50 50 50 51 51 51 52 52 52 52 54 55 57 58 58 56 54 52 52 51 50 47 46 45 45 43 43 42
37 39 42 47 50 50 51 51 53 53 53 53 53 54 55 57 57 56 54 53 51 50 48 47 46 45 44 44 43 42 41 41
37 41 46 48 49 50 51 52 54 54 54 55 56 56 56 55 54 51 51 49 48 47 46 45 44 44 43 42 41 41 40 41
35 41 48 51 51 52 52 54 54 55 54 53 52 53 52 51 50 48 47 46 45 45 44 43 42 42 41 40 41 41 39 35
31 42 50 52 52 54 54 54 53 53 51 51 50 49 48 47 47 46 44 44 43 42 42 42 41 40 40 39 37 31 28 26

GFSFLT1_sfc_30mbdewp_072.txt.gz
Dewpoint
51 53 53 53 54 55 56 56 56 56 55 55 55 56 57 57 55 52 50 50 48 48 48 49 50 50 49 48 46 47 44 41
51 52 52 53 54 54 55 55 55 55 53 52 54 54 55 56 55 53 51 51 49 49 50 50 52 50 49 49 48 47 47 45
50 51 50 52 52 53 54 54 54 54 54 53 53 52 52 53 54 54 54 53 53 52 52 53 53 52 51 50 48 47 47 46
49 49 49 51 52 53 53 53 53 53 53 53 52 51 51 51 51 52 54 55 55 55 55 54 54 53 52 50 49 48 47 48
50 49 48 49 52 52 52 51 52 50 50 50 49 48 49 48 49 50 51 54 55 55 55 55 55 54 52 52 51 49 49 47
50 49 49 49 51 52 52 51 51 50 49 50 49 48 47 44 45 46 47 49 52 53 55 55 56 55 55 53 52 51 50 49
50 50 50 49 50 51 51 51 50 50 50 49 48 47 47 45 44 45 47 49 50 52 53 55 56 56 56 55 55 53 52 51
50 50 49 49 49 50 51 51 51 50 50 49 48 48 47 47 46 46 46 47 49 51 53 54 55 56 56 56 55 54 52 51
50 50 49 49 49 49 50 51 50 50 50 49 49 48 48 48 48 48 49 49 49 50 52 55 55 56 56 55 55 54 54 53
49 50 49 49 49 49 49 50 50 50 50 50 49 49 48 48 49 51 51 51 52 52 52 53 55 56 56 55 55 55 53 52
49 50 50 49 49 49 49 50 50 50 50 50 50 49 49 49 49 50 52 53 53 53 53 54 55 56 56 56 56 55 53 51
47 49 50 50 50 50 49 49 50 50 50 50 49 49 49 50 50 52 53 54 53 54 54 55 56 56 55 54 54 52 51 49
46 48 49 50 49 50 50 50 50 50 49 49 49 49 49 50 50 51 52 53 55 55 55 56 56 56 53 53 51 50 50 48
45 48 49 49 49 49 49 49 50 49 49 49 49 49 49 49 49 51 52 54 55 55 56 56 55 54 53 52 51 49 48 48
39 45 48 49 48 49 49 49 49 49 49 49 48 49 49 49 50 51 54 55 56 56 55 54 53 52 51 50 48 47 46 45
31 41 44 48 50 49 49 49 49 50 49 49 48 49 49 49 51 54 55 56 56 56 54 53 52 50 49 48 46 45 44 43
29 35 41 46 49 50 50 50 50 50 50 50 50 50 51 52 54 55 56 56 55 53 51 50 48 47 45 45 44 43 43 42
30 32 38 41 46 50 50 51 52 51 51 51 51 52 52 54 55 54 52 52 50 49 47 47 45 44 43 43 42 42 41 35
31 32 37 44 49 50 51 51 52 53 52 52 53 54 54 52 51 50 49 48 48 47 45 44 43 41 41 40 38 35 32 30

GFSFLT1_sfc_30mbdewp_075.txt.gz
Dewpoint
52 53 52 52 54 56 56 57 56 57 57 57 57 58 58 57 53 51 50 48 49 48 50 50 51 49 48 46 44 45 41 39
52 52 52 52 54 55 56 56 56 56 56 55 56 56 57 57 54 52 50 48 49 48 49 50 52 50 49 50 49 48 47 45
52 52 52 52 52 53 55 55 55 55 55 55 55 56 57 57 55 53 51 49 49 49 50 52 52 52 52 51 50 50 50 47
50 51 49 52 50 51 53 54 55 55 54 54 54 54 55 55 54 54 52 51 50 51 52 54 54 54 53 53 51 50 49 49
51 50 49 50 51 52 54 54 54 55 54 53 53 52 52 54 54 54 53 53 52 51 54 54 55 56 55 54 53 51 51 49
50 50 50 49 50 52 52 53 53 53 54 53 52 53 53 54 54 53 53 53 52 53 55 55 56 56 56 55 54 53 53 51
50 50 51 50 50 52 52 52 52 51 52 52 51 51 51 50 51 51 51 53 54 55 55 56 56 57 57 56 56 55 54 52
49 50 50 50 50 51 50 51 51 51 51 52 51 51 50 48 49 49 49 49 51 52 53 54 55 56 57 57 57 56 55 55
49 49 50 50 50 50 50 51 51 51 51 50 51 51 50 49 48 48 48 48 50 51 53 53 54 55 56 56 56 57 56 56
48 49 50 50 50 50 51 51 51 51 51 50 50 50 50 49 50 50 50 51 51 51 52 52 53 54 55 56 56 56 56 56
48 49 50 50 50 50 51 51 50 51 51 51 50 50 50 50 50 50 51 51 51 51 51 52 52 53 55 56 56 56 56 54
48 49 50 50 50 50 50 50 50 50 51 51 51 51 50 50 50 50 51 52 52 52 52 53 53 54 55 56 56 56 55 55
46 49 50 50 50 50 50 50 50 51 51 51 51 51 51 50 50 50 51 51 51 52 52 52 54 55 56 56 55 55 54 52
45 48 50 50 50 50 50 50 50 51 51 51 51 51 51 50 50 50 50 51 52 53 53 54 54 55 56 56 55 53 52 51
37 46 48 50 50 50 50 51 51 51 51 51 50 51 51 51 51 51 51 52 52 52 53 53 54 55 55 54 52 51 51 50
30 35 44 49 50 50 50 51 51 51 51 50 50 51 51 51 51 51 51 52 52 52 53 54 55 55 53 52 52 50 48 46
30 32 38 45 49 49 50 50 51 51 51 50 50 50 50 50 50 51 51 52 52 53 54 54 53 53 51 51 50 48 46 44
32 31 34 40 46 50 50 50 50 50 50 50 50 50 50 50 50 50 52 53 54 54 54 54 52 50 48 48 46 45 44 40
33 34 35 37 43 48 50 50 51 50 50 50 50 50 50 50 51 52 53 55 55 52 51 50 48 46 44 43 43 41 37 35

GFSFLT1_sfc_30mbdewp_078.txt.gz
Dewpoint
53 53 53 52 52 54 56 58 57 57 58 58 58 57 56 56 53 49 46 45 48 45 44 47 45 43 43 41 42 41 40 39
53 53 53 52 53 54 56 56 56 57 56 57 56 56 55 54 52 49 46 46 47 49 51 50 47 47 46 46 44 45 43 42
52 53 53 52 52 53 55 56 56 56 56 55 57 56 56 54 53 50 49 49 51 52 51 51 51 52 50 50 48 48 49 46
51 52 52 52 52 52 54 56 56 56 56 55 57 57 57 54 53 51 51 50 49 51 52 52 53 53 52 52 51 50 49 51
49 51 51 52 51 52 53 55 55 55 55 55 55 55 54 54 53 52 52 51 50 51 52 53 53 52 52 53 52 52 50 50
47 50 51 51 51 52 54 55 55 55 54 54 54 54 54 55 54 53 52 52 52 51 52 52 51 54 53 54 54 54 53 51
46 49 50 50 51 52 53 53 54 55 54 54 54 54 54 54 54 53 52 51 51 50 51 54 53 55 54 56 57 56 55 54
45 48 49 50 50 51 52 52 53 54 54 54 54 54 54 54 53 53 51 51 50 50 52 52 54 55 55 55 55 56 56 55
44 47 49 50 50 51 51 51 52 53 53 54 54 54 53 54 54 53 51 51 50 51 53 52 53 52 53 53 54 54 55 55
43 46 48 50 50 51 51 50 51 52 53 53 53 54 53 52 53 53 52 51 51 52 53 53 53 53 52 53 53 53 54 55
42 45 48 49 51 51 51 51 50 51 52 53 52 52 53 52 53 53 52 52 51 52 52 53 52 52 52 51 51 52 52 54
42 45 47 49 50 51 51 50 49 50 51 52 51 51 52 53 53 53 52 52 51 50 51 51 50 50 50 51 51 52 52 54
43 45 47 48 50 50 51 51 49 49 50 52 52 52 51 53 54 53 54 53 52 51 50 49 50 50 50 51 52 54 55 55
40 45 47 48 49 50 50 52 51 50 50 52 52 52 51 51 51 52 52 51 51 51 51 51 50 50 50 51 54 55 54 52
33 42 46 48 48 49 50 51 52 52 51 51 51 52 52 52 51 50 50 50 49 49 51 51 51 51 50 53 54 55 55 55
29 34 42 46 48 49 50 51 52 52 51 51 51 51 51 52 51 51 51 51 50 50 51 51 52 52 52 53 54 54 54 54
28 29 32 41 46 49 50 50 51 52 52 52 51 51 51 51 51 51 51 52 51 51 51 52 52 52 53 53 54 54 54 52
30 31 32 34 39 46 48 50 51 52 52 52 52 52 52 51 51 51 51 51 51 51 52 52 51 52 53 51 52 54 52 49
32 32 34 35 37 41 47 48 50 51 51 51 51 51 51 51 51 51 51 51 51 52 52 51 51 53 52 50 49 50 46 43

GFSFLT1_sfc_30mbdewp_081.txt.gz
Dewpoint
48 50 51 52 51 52 54 57 58 58 58 59 58 57 56 55 53 53 54 54 53 51 50 51 50 50 49 49 47 46 45 42
48 51 51 52 52 52 54 57 58 57 57 57 56 55 54 53 51 51 51 50 49 48 48 47 46 45 46 48 47 45 43 42
47 51 52 52 52 52 53 56 57 57 57 57 56 55 54 52 50 47 48 48 45 46 47 50 46 46 47 47 47 47 44 45
46 50 52 53 52 52 53 56 56 56 56 57 56 54 55 52 51 46 47 50 49 49 52 51 50 51 51 52 51 49 48 48
44 50 51 52 52 52 53 55 56 56 56 57 55 52 51 51 51 50 48 50 52 53 53 54 54 54 53 53 52 51 51 51
42 48 51 51 52 52 53 55 54 55 56 56 55 53 52 53 51 49 48 49 50 51 53 54 54 54 54 54 52 53 53 52
41 47 49 50 51 51 53 54 55 55 55 56 55 54 55 54 52 50 50 49 51 52 52 54 54 53 55 55 55 55 55 54
39 45 48 49 50 51 52 53 53 55 55 54 55 55 54 54 52 51 50 50 51 52 52 53 53 54 54 56 55 55 56 56
36 43 47 48 50 51 51 52 53 54 55 54 54 55 55 54 53 51 51 50 49 50 51 50 52 53 53 55 55 54 57 56
36 41 47 48 49 50 50 51 52 53 54 55 55 55 55 54 53 53 52 51 50 49 50 51 51 52 53 54 54 53 55 54
36 40 45 47 49 51 51 50 50 52 53 55 54 55 55 55 55 55 54 53 52 50 52 51 52 51 51 52 52 53 54 54
36 40 43 47 49 50 51 51 48 50 52 53 54 54 55 55 55 56 56 55 54 52 52 52 52 52 52 52 52 53 53 53
39 40 43 46 48 50 51 51 48 49 50 52 53 54 54 55 55 55 56 55 54 53 53 53 52 52 53 53 53 52 52 52
34 42 43 45 47 49 50 52 51 49 49 51 53 54 53 54 55 55 55 55 54 54 53 52 51 52 53 53 53 52 52 52
27 35 42 44 45 48 49 51 52 51 49 50 52 54 54 53 54 54 54 54 54 53 53 52 52 52 52 51 51 52 52 52
26 27 33 42 45 46 48 50 52 52 51 50 51 54 54 53 53 53 54 54 54 54 53 53 53 52 52 52 51 51 51 53
27 28 28 31 42 46 47 49 50 52 53 52 51 52 53 53 53 53 53 53 53 53 52 52 52 52 51 50 51 52 52 54
30 32 32 31 31 42 47 48 49 51 52 52 52 52 53 53 53 53 53 53 53 52 52 52 52 52 51 50 49 52 54 54
36 35 34 34 35 35 40 46 49 50 51 51 52 53 53 53 53 52 53 53 53 53 53 53 53 53 51 51 50 52 53 53

GFSFLT1_sfc_30mbdewp_084.txt.gz
Dewpoint
45 47 50 51 52 52 58 58 58 58 59 58 57 56 56 55 55 55 55 56 57 56 56 56 55 54 53 51 48 49 47 46
45 48 51 52 53 53 57 57 57 58 58 56 55 54 54 54 54 54 54 53 54 55 55 55 54 52 51 49 47 46 44 45
45 50 51 52 53 53 57 56 57 57 57 57 55 54 54 53 53 53 53 52 53 53 53 53 52 51 50 50 47 47 46 47
46 50 52 53 53 53 56 56 57 57 57 57 55 54 53 50 50 51 52 52 51 49 50 48 49 48 48 50 49 46 46 47
44 50 52 53 53 53 53 55 56 57 57 56 54 52 50 49 48 49 50 51 50 47 48 48 51 50 51 49 51 50 51 47
40 50 51 53 54 54 54 55 56 56 57 55 54 52 49 49 47 46 48 50 51 51 50 52 51 54 54 53 53 52 53 53
34 50 50 52 53 53 53 54 55 56 57 55 54 52 50 50 48 45 46 50 51 51 54 55 55 55 54 54 54 54 53 53
35 48 50 50 53 53 54 54 54 55 56 56 54 52 51 50 49 47 47 48 49 51 53 54 54 54 55 55 55 54 55 52
36 45 49 50 52 53 53 53 54 55 56 56 56 54 52 51 51 49 48 48 48 50 52 53 53 54 54 55 54 53 52 54
34 41 48 49 51 53 52 52 53 54 54 55 55 55 54 53 52 51 49 48 48 49 52 52 51 52 53 53 54 52 53 53
31 35 48 49 51 53 53 52 52 53 54 54 55 55 55 54 54 52 50 49 48 49 51 51 52 52 52 52 52 53 53 55
33 37 47 49 50 52 53 52 52 53 55 54 54 55 56 55 55 54 52 50 50 49 50 50 50 50 50 51 51 50 52 53
37 38 42 48 49 51 52 52 50 52 54 55 54 55 55 55 55 55 54 52 50 50 49 49 49 50 51 51 50 49 49 51
34 40 40 45 48 50 51 53 52 50 53 54 55 55 55 55 55 56 56 54 53 51 50 50 50 50 50 50 50 50 51 50
28 34 42 43 46 49 51 53 53 52 51 53 54 55 55 55 55 55 56 57 56 55 54 53 52 52 52 51 51 52 52 52
27 29 32 42 45 47 49 51 54 53 51 50 52 54 55 55 55 55 55 55 56 55 54 53 53 53 52 52 51 51 52 52
35 35 35 35 38 46 47 50 52 54 53 51 51 53 54 54 54 55 55 55 55 55 54 54 53 52 51 50 51 52 52 51
37 37 37 38 38 41 47 48 50 53 53 53 52 51 52 54 54 54 54 55 55 54 54 53 53 53 51 50 49 51 52 52
38 41 42 44 44 44 43 41 49 51 52 53 53 53 52 53 54 53 53 53 54 54 54 54 54 53 52 50 49 50 51 52

GFSFLT1_sfc_30mbdewp_087.txt.gz
Dewpoint
44 49 53 53 59 59 59 58 58 59 58 57 57 56 56 56 56 60 61 61 60 59 58 58 57 55 53 50 49 49 49 48
45 49 51 52 56 58 58 58 58 58 57 55 54 54 54 54 55 56 59 58 58 57 57 56 55 53 51 49 48 47 48 47
46 50 51 52 56 57 57 57 57 57 57 56 55 54 54 54 54 55 57 57 57 56 56 56 55 52 50 48 46 46 46 47
48 50 51 52 54 56 56 56 57 57 57 56 55 54 53 52 52 53 55 56 57 56 56 56 55 52 49 47 46 45 44 47
49 50 52 52 54 56 56 56 56 56 57 55 53 52 51 51 51 52 52 54 54 54 53 53 52 52 49 49 48 47 46 44
49 51 52 53 53 55 56 56 56 56 57 55 53 52 51 50 50 50 51 51 50 51 51 50 50 51 50 49 50 49 49 47
50 51 53 53 53 54 55 55 56 57 56 55 53 52 50 49 48 49 50 50 50 49 49 48 51 51 52 50 51 50 52 51
49 51 53 53 53 53 54 54 55 56 56 55 53 52 50 49 47 48 48 49 49 50 51 49 51 53 54 53 53 53 53 54
50 51 52 53 53 53 53 54 53 56 56 55 54 52 50 49 47 46 47 48 48 51 53 54 53 54 55 55 54 54 55 54
49 50 51 53 53 53 53 53 53 54 56 55 54 53 51 50 49 47 46 48 48 50 52 54 54 54 54 55 54 53 54 53
47 50 50 52 53 53 53 53 53 54 55 56 55 54 52 51 50 49 48 47 48 48 51 52 53 53 53 53 54 54 53 53
36 49 50 51 53 53 53 53 53 54 53 55 55 55 53 53 51 50 50 49 49 48 49 51 51 51 52 52 51 52 53 52
39 48 49 51 52 53 52 52 53 54 54 54 54 54 55 54 53 52 51 50 49 48 49 50 51 51 51 51 50 50 51 52
28 46 48 50 51 53 52 52 52 53 54 54 54 53 54 56 54 54 53 51 50 49 49 49 48 49 49 50 50 50 50 50
35 35 43 48 50 52 53 52 52 52 54 54 54 53 53 54 56 55 55 54 52 50 49 49 48 47 48 49 49 50 50 50
37 37 37 38 44 49 52 53 53 51 51 54 54 54 54 54 53 55 55 55 54 52 50 49 48 47 46 47 49 49 50 49
40 41 43 43 44 44 48 53 53 53 50 50 54 55 55 55 54 54 54 55 56 55 53 52 50 49 48 48 48 49 49 49
41 43 47 48 49 49 49 49 51 54 52 51 50 53 55 55 55 55 55 54 54 56 56 55 54 53 51 49 49 51 51 51
41 47 47 48 48 48 50 50 49 52 54 53 52 51 53 54 54 55 55 55 55 54 55 55 55 55 53 51 49 50 52 52

GFSFLT1_sfc_30mbdewp_090.txt.gz
Dewpoint
44 54 55 58 60 60 60 59 58 59 58 57 57 57 57 57 58 61 62 61 61 60 60 57 54 50 49 52 50 49 49 49
46 52 53 59 60 59 59 58 58 57 56 55 55 54 55 55 56 57 61 62 61 60 59 57 54 47 50 52 50 48 49 49
48 52 53 58 58 58 58 57 57 57 56 56 55 54 54 54 55 56 60 60 60 60 58 57 56 49 52 50 49 48 48 49
48 51 53 57 57 57 57 57 57 56 56 56 55 54 53 53 53 55 58 59 59 58 58 56 55 52 51 49 48 47 47 48
48 51 52 56 57 57 57 57 56 57 56 55 53 52 51 52 52 53 56 57 57 57 57 56 55 53 50 48 48 47 47 46
48 50 52 54 56 56 56 56 56 57 55 55 53 52 52 52 51 52 53 55 57 57 56 56 55 54 51 48 48 48 47 47
48 50 51 54 55 56 56 55 55 56 55 54 53 52 51 51 50 51 51 51 53 54 54 55 55 54 53 50 50 49 48 48
48 50 52 53 54 55 55 55 55 56 55 54 53 52 51 50 50 51 51 50 50 51 52 51 53 53 54 52 51 49 51 49
49 51 52 52 53 54 54 54 55 56 55 54 54 52 50 50 49 50 51 50 50 50 50 49 50 52 52 52 51 51 51 52
50 52 52 52 53 53 54 54 54 55 55 54 53 52 51 50 49 49 50 50 50 50 51 50 50 52 54 53 52 51 53 53
50 52 52 53 53 53 53 53 53 55 55 55 54 53 51 51 50 47 48 49 50 50 52 52 52 52 53 54 53 53 53 53
50 51 52 53 53 53 53 53 53 54 55 55 54 54 52 51 50 48 47 48 49 49 50 52 53 53 53 53 53 54 53 52
46 50 51 53 53 53 53 53 53 53 54 55 55 54 53 52 51 50 49 47 48 48 49 50 51 52 52 52 51 51 53 52
47 49 50 52 53 53 53 53 53 53 53 55 55 55 54 53 52 51 50 49 48 48 48 48 49 50 50 50 51 50 50 51
39 43 50 51 52 53 52 53 53 54 53 53 54 54 55 54 53 53 52 51 50 49 48 48 48 48 49 49 50 49 50 50
44 45 47 47 49 51 54 53 53 54 54 53 53 53 53 54 55 54 54 53 51 50 49 49 49 48 48 48 49 49 49 49
46 47 47 47 48 49 50 53 54 54 54 54 54 53 53 53 53 55 55 54 54 52 51 50 49 49 48 46 47 47 47 48
47 46 46 46 47 49 50 50 52 55 53 53 54 55 54 54 54 54 54 55 55 55 53 52 50 50 48 46 45 46 46 47
44 43 43 43 44 46 46 47 47 49 51 52 52 53 55 55 54 54 54 54 54 54 55 54 53 52 50 48 46 46 46 46

GFSFLT1_sfc_30mbdewp_093.txt.gz
Dewpoint
38 51 55 58 58 59 59 59 59 59 58 57 57 57 58 57 59 61 62 61 61 61 60 57 55 53 51 51 48 49 50 52
37 53 56 58 58 58 59 58 58 58 57 55 55 55 56 56 56 57 60 61 61 61 60 57 55 50 50 51 48 48 50 52
42 53 55 58 58 58 58 58 58 56 56 55 54 54 55 55 55 56 57 60 61 60 60 57 54 48 49 51 47 48 49 52
47 52 55 58 58 58 58 57 57 56 55 55 54 54 54 53 54 55 56 59 60 60 59 57 56 49 51 51 47 47 48 49
48 51 54 57 57 58 57 57 56 55 55 54 53 53 51 52 53 54 56 58 60 60 59 57 56 51 51 51 50 47 48 48
46 50 53 56 57 57 57 56 56 55 55 54 53 53 52 52 52 53 55 57 58 59 58 58 56 51 53 52 50 49 49 49
44 49 52 55 57 56 56 55 55 54 55 54 53 52 52 52 52 52 53 55 55 57 57 56 55 53 54 53 51 51 51 49
42 49 51 55 55 55 55 54 54 55 54 54 53 52 51 51 52 52 52 52 53 55 56 55 53 52 54 54 52 51 51 50
42 49 51 54 55 55 55 54 54 54 54 54 53 52 51 51 51 52 52 52 53 53 54 54 54 54 54 53 53 51 51 50
43 49 51 53 54 54 55 54 54 53 53 54 53 53 52 50 51 52 52 52 51 52 52 52 53 53 54 54 52 51 52 52
46 50 51 53 54 54 54 54 54 53 53 54 53 53 51 51 50 50 51 51 51 51 51 50 50 52 53 54 53 52 51 51
50 51 52 52 53 54 54 54 54 54 53 52 53 53 51 51 50 49 50 50 50 50 50 51 50 50 52 52 51 52 51 50
51 52 52 52 53 53 53 53 53 55 54 53 53 54 52 51 51 49 48 49 50 50 50 50 50 51 51 51 52 52 51 50
50 52 52 52 52 53 53 53 53 53 55 54 53 54 53 52 51 50 48 48 48 49 49 50 50 51 52 52 51 51 52 52
48 50 52 53 53 53 53 53 53 53 54 55 53 54 54 53 52 51 50 49 48 48 48 49 49 50 51 52 52 51 51 51
46 47 48 49 50 51 53 54 54 54 54 53 54 55 55 54 53 52 52 51 50 49 48 48 48 48 49 49 50 49 50 50
44 45 45 46 48 48 49 50 52 54 54 54 54 54 54 54 55 53 53 52 52 51 50 49 48 48 47 46 48 48 48 48
42 42 42 42 45 45 45 46 48 51 53 54 54 54 54 54 54 54 55 54 54 52 51 51 50 49 48 47 46 47 47 48
39 39 38 38 41 43 43 43 44 44 44 45 45 47 50 53 55 54 54 54 55 55 54 53 52 51 49 47 46 47 47 48

GFSFLT1_sfc_30mbdewp_096.txt.gz
Dewpoint
25 44 52 56 58 58 58 59 59 59 58 58 58 58 59 60 62 62 61 62 61 61 61 59 58 55 53 52 49 51 52 52
25 29 48 56 58 58 58 58 58 58 58 57 56 56 57 57 58 60 61 62 61 61 60 57 57 55 53 51 49 50 52 52
28 33 53 56 57 58 58 58 58 58 58 57 55 56 55 55 55 56 57 59 61 61 59 57 56 54 52 50 49 50 51 52
30 42 53 56 56 57 58 57 58 58 57 55 54 54 54 53 54 54 55 57 59 61 59 57 56 54 52 50 49 49 50 52
30 44 53 56 57 58 58 57 57 57 56 54 53 53 51 52 53 54 55 56 58 60 59 57 57 55 54 52 49 48 50 50
34 45 51 56 57 57 57 57 57 56 55 54 53 52 52 52 53 53 55 56 57 60 59 58 56 53 53 52 49 48 50 51
34 47 52 56 57 57 57 56 56 55 55 54 53 52 52 51 52 52 54 56 57 59 59 58 57 54 53 53 51 48 51 50
31 46 51 55 56 56 56 55 55 55 54 54 53 52 52 51 52 52 53 53 54 56 58 57 56 54 54 53 52 52 52 51
27 42 50 54 55 55 55 54 55 54 54 53 53 52 51 51 52 53 53 54 54 56 56 55 55 54 54 54 52 52 53 52
30 39 49 54 55 55 55 54 55 54 54 53 53 52 51 51 51 52 53 53 54 54 55 54 52 53 54 53 52 51 53 53
43 41 50 54 55 54 55 54 54 54 54 53 53 52 52 51 51 52 52 53 53 53 53 53 53 52 54 54 53 52 52 51
49 50 52 53 54 53 54 54 53 53 53 54 53 52 52 51 50 51 51 51 51 52 52 52 52 53 54 54 53 53 51 51
51 51 52 53 53 53 53 54 54 53 53 53 53 53 52 51 50 50 50 51 51 51 51 51 51 51 52 53 53 53 53 52
52 52 52 52 52 53 53 54 54 54 53 53 53 53 52 51 51 50 49 50 50 50 50 51 51 51 50 51 52 52 51 52
48 49 51 53 53 53 53 53 54 55 54 53 53 53 53 52 51 50 49 48 49 49 50 50 50 50 51 51 50 50 51 51
43 44 46 47 49 51 55 54 54 54 55 54 53 53 54 53 52 51 50 49 48 48 49 49 49 50 50 50 51 51 50 50
40 40 42 44 44 45 46 47 49 55 54 53 54 54 54 54 53 52 52 51 50 49 48 48 48 48 48 49 50 50 51 51
38 38 38 39 42 42 42 43 45 46 47 47 48 52 54 54 55 54 53 52 52 51 50 49 48 48 47 47 46 48 49 49
36 36 36 35 38 39 40 40 40 40 40 40 41 43 45 46 50 53 54 55 54 53 52 51 51 51 49 47 46 46 47 47

GFSFLT1_sfc_30mbdewp_099.txt.gz
Dewpoint
31 31 44 53 56 58 58 59 60 60 62 61 61 61 61 61 62 62 62 62 61 61 61 60 59 57 55 55 55 55 54 53
32 33 34 49 56 58 58 59 59 59 59 58 58 58 59 60 60 61 62 62 61 60 60 59 58 56 55 54 54 54 54 54
31 30 33 46 53 57 58 58 58 59 59 59 58 58 58 58 59 59 61 61 62 61 59 59 58 57 55 53 53 53 53 53
31 33 36 46 52 56 57 58 58 59 59 58 56 55 55 55 56 57 57 59 61 61 60 59 58 57 54 52 52 52 52 53
32 33 37 48 52 56 57 58 58 58 58 56 55 54 53 54 55 55 56 56 58 60 60 59 57 56 55 53 52 52 52 51
31 32 35 46 53 56 57 58 58 58 57 57 55 54 54 54 54 54 55 56 56 57 59 58 57 56 55 54 52 51 52 52
34 34 38 49 55 56 57 57 57 57 56 56 54 54 53 52 53 53 54 55 56 56 59 58 57 56 56 55 53 51 51 52
38 33 45 53 55 56 57 57 56 56 56 55 54 55 53 52 53 52 53 54 56 56 59 58 57 56 56 55 53 53 53 53
44 38 46 53 55 56 56 56 56 55 55 54 55 54 53 53 53 52 53 54 54 57 58 58 57 56 55 55 54 53 53 53
48 44 42 53 55 56 56 56 55 55 54 54 55 54 53 52 52 53 54 55 55 57 57 57 56 55 55 54 53 52 52 53
49 47 41 52 54 56 56 55 54 54 54 54 54 54 53 53 53 53 54 54 55 55 55 54 54 54 54 54 53 52 52 53
51 51 52 53 54 55 55 54 54 54 54 54 54 53 53 53 53 53 53 53 54 54 54 54 53 53 54 53 52 52 50 49
52 53 53 53 53 54 54 54 53 54 54 55 54 54 53 52 52 53 53 53 53 54 53 53 53 52 53 53 53 52 51 50
47 51 52 52 53 53 53 54 53 54 54 54 54 53 53 52 52 52 52 52 53 53 53 52 52 53 53 54 53 53 52 52
42 43 45 48 52 53 54 54 54 54 54 53 53 53 53 53 52 52 51 52 52 52 52 52 53 52 52 53 53 53 53 53
40 39 42 43 44 46 49 53 55 55 54 54 53 54 54 53 53 52 51 51 51 51 51 51 52 52 52 52 51 51 52 52
38 38 37 40 42 42 43 44 51 55 55 54 54 54 54 54 53 53 52 51 51 50 50 50 51 51 50 50 51 52 51 51
36 36 35 36 40 41 40 40 41 42 42 43 45 48 49 51 54 53 53 53 52 51 50 50 50 50 48 48 48 50 51 51
34 34 34 34 37 38 39 38 38 37 37 37 39 41 42 43 44 45 46 49 53 52 52 51 51 44 39 44 46 48 50 50

GFSFLT1_sfc_30mbdewp_102.txt.gz
Dewpoint
27 29 31 37 46 52 56 59 61 62 62 62 60 62 61 61 62 62 62 61 61 61 61 60 59 57 57 58 57 57 58 56
27 28 33 35 42 51 55 57 60 61 62 61 60 60 60 61 62 61 61 62 61 61 61 59 58 56 56 56 56 56 56 56
28 29 31 34 38 49 54 56 59 61 60 59 59 60 60 60 60 61 61 62 62 61 60 60 58 57 56 56 56 55 55 56
27 29 30 32 38 46 52 54 57 59 58 58 58 59 59 59 59 59 61 61 62 61 60 59 59 57 56 56 56 56 54 55
27 27 29 31 36 44 50 53 56 59 59 58 57 56 56 56 57 57 59 60 61 61 61 60 58 57 56 56 56 56 54 52
35 32 30 31 33 44 50 53 55 58 59 58 57 55 55 55 56 57 57 57 59 60 60 60 59 58 57 56 56 56 55 53
42 38 35 33 32 43 52 53 55 57 59 58 57 56 55 54 55 54 55 55 55 56 58 59 59 58 57 56 54 55 54 54
44 42 38 34 36 49 53 54 55 58 58 57 57 57 56 55 54 53 53 53 54 55 57 59 58 58 57 56 55 55 55 54
48 45 42 37 44 52 54 54 54 57 57 57 57 56 56 54 54 52 53 53 54 55 56 58 58 58 57 56 55 55 55 54
50 49 45 40 47 52 54 54 55 56 56 56 56 57 55 54 53 54 53 54 54 56 57 58 58 57 57 57 56 55 54 54
48 52 47 41 49 54 56 56 56 55 56 56 57 56 56 54 54 54 54 55 55 56 57 57 57 56 56 56 55 55 54 54
45 50 52 48 51 54 56 56 55 55 55 56 56 56 55 54 54 54 54 55 55 55 55 56 55 55 55 55 54 53 53 53
42 46 51 52 52 54 55 55 55 55 55 56 56 56 55 54 54 54 54 53 54 55 55 55 54 54 55 55 54 53 52 52
41 42 45 50 53 54 54 55 54 55 55 55 55 55 54 53 53 54 54 54 53 53 54 54 53 53 54 54 53 53 52 51
38 39 42 44 47 53 54 54 55 55 55 55 54 54 54 52 53 53 53 53 53 53 53 54 54 54 54 54 54 53 52 52
36 37 38 41 42 44 46 53 54 55 55 54 54 53 53 53 52 52 53 53 53 53 53 53 54 54 54 54 53 53 53 53
35 35 36 39 40 41 42 43 44 47 48 49 54 54 54 54 53 53 53 53 52 52 52 53 53 53 53 52 53 53 53 53
33 33 34 37 38 40 39 39 40 40 40 41 42 46 48 49 54 54 53 53 53 52 52 52 51 50 41 46 50 52 53 53
32 32 33 35 37 36 37 37 37 36 35 37 38 39 40 42 43 44 46 48 47 49 47 52 44 36 36 38 43 47 50 51

GFSFLT1_sfc_30mbdewp_105.txt.gz
Dewpoint
23 19 20 26 31 39 47 57 62 63 62 61 60 59 62 60 60 60 61 62 63 61 61 61 61 61 61 60 59 60 59 59
26 26 23 25 31 41 48 54 61 62 62 60 59 60 61 61 62 61 61 60 61 61 61 61 60 59 58 59 58 58 59 59
26 26 28 29 32 38 48 52 58 61 62 59 57 61 60 60 61 60 60 58 60 60 61 60 58 57 57 57 57 57 57 59
25 27 28 30 32 36 42 50 54 60 60 59 59 60 59 59 60 60 60 60 61 61 61 60 58 57 56 56 57 57 56 57
24 25 26 29 33 36 39 47 51 56 59 58 58 57 57 58 59 59 59 60 60 61 61 60 59 57 57 57 57 57 56 55
38 38 35 29 31 36 41 43 49 54 59 58 58 57 57 57 57 58 58 59 59 61 61 60 59 58 57 57 57 58 57 55
42 41 40 35 33 34 39 44 47 52 58 58 58 57 56 55 55 56 57 58 58 58 61 60 59 59 58 58 58 58 57 56
45 46 45 40 36 35 39 45 47 51 57 58 58 57 56 55 55 54 54 56 56 57 59 60 60 59 58 57 57 57 57 55
45 49 50 45 41 36 37 41 48 50 56 57 58 57 57 56 55 53 52 54 55 55 57 59 59 59 58 57 57 57 57 57
46 48 50 52 45 37 40 48 50 50 57 58 58 58 57 55 55 53 53 53 55 55 55 56 59 59 58 57 56 55 56 56
44 45 47 50 47 42 50 52 51 56 58 58 58 57 57 56 55 53 54 54 54 55 56 57 58 58 58 57 56 56 55 56
42 41 43 47 51 49 53 54 54 57 57 57 57 58 57 56 54 54 55 55 54 55 56 57 57 57 57 57 56 56 55 55
39 38 38 42 46 55 55 56 56 56 56 56 57 58 57 55 54 54 55 55 54 54 55 56 56 56 56 55 54 54 54 53
37 36 36 39 43 49 55 56 56 56 56 57 57 57 56 55 53 54 54 54 54 54 54 55 54 55 55 55 55 54 54 53
37 35 34 36 40 43 51 55 55 55 56 56 56 56 56 55 52 54 54 54 53 53 53 54 54 53 54 53 54 54 53 53
36 35 34 34 38 40 42 46 54 55 55 56 56 56 56 54 52 53 54 54 54 53 53 54 54 54 53 53 53 53 53 52
33 35 34 33 36 37 39 40 42 45 46 46 54 55 54 53 53 53 53 53 53 53 53 54 54 53 43 51 53 53 53 53
31 31 33 33 36 37 37 37 38 39 39 40 43 45 47 48 53 53 52 53 53 53 53 53 48 39 37 41 46 52 54 54
31 30 31 33 35 36 36 36 36 35 36 37 38 40 41 42 44 45 45 44 44 44 43 42 39 34 35 37 41 49 51 50

GFSFLT1_sfc_30mbdewp_108.txt.gz
Dewpoint
26 27 22 21 26 33 60 64 64 65 65 64 63 63 61 61 62 63 63 63 64 64 63 62 62 62 62 62 60 61 60 59
25 27 28 28 28 33 53 63 64 64 64 63 62 61 61 61 61 61 62 62 63 63 63 61 62 62 61 60 60 59 59 60
27 29 32 29 29 36 46 61 64 64 63 62 62 62 62 62 62 61 62 62 62 63 62 61 60 59 59 59 59 58 58 60
28 29 31 36 35 40 41 50 63 63 63 62 61 62 61 60 61 61 61 61 60 62 62 60 59 58 57 58 58 58 56 58
28 28 29 33 38 42 41 46 56 62 62 61 59 60 59 59 60 59 60 61 60 62 61 60 58 58 57 57 58 57 57 56
38 39 39 39 39 39 45 43 50 58 62 60 59 60 60 59 59 59 59 61 61 61 61 60 58 57 57 57 57 57 57 56
44 46 47 45 41 41 40 45 47 53 61 61 59 60 59 58 59 59 59 58 60 61 61 60 59 57 57 57 57 57 57 57
44 46 48 51 52 53 42 41 44 50 59 61 60 60 59 58 58 58 58 58 58 59 60 60 60 58 58 58 58 58 57 57
43 45 47 48 50 52 53 40 40 48 56 60 60 61 59 58 58 58 57 57 58 59 61 60 60 59 58 58 58 58 58 57
42 43 44 44 47 49 52 52 40 46 53 59 59 60 59 58 58 57 56 57 56 56 58 60 60 59 58 58 57 57 58 57
40 41 40 41 44 47 50 51 41 48 54 58 59 60 59 58 58 57 55 57 56 56 56 57 60 59 58 58 57 57 57 57
38 38 38 38 41 44 47 55 51 55 59 59 59 59 59 58 57 56 57 56 56 56 56 56 59 58 58 57 56 56 55 55
37 36 36 36 39 41 44 53 57 58 58 58 58 59 58 58 57 56 56 56 55 55 56 57 57 58 58 57 56 56 55 55
37 36 35 35 37 38 40 45 56 57 57 57 58 58 59 57 56 57 56 55 55 55 56 56 56 57 56 56 56 56 55 55
34 35 35 35 36 37 38 40 45 56 57 57 57 58 58 57 56 56 55 55 55 55 55 55 56 55 55 56 55 54 54 54
32 32 34 35 35 35 36 37 40 44 50 55 57 58 58 57 56 55 55 55 55 54 55 55 54 54 52 55 55 55 54 54
31 32 32 33 35 34 36 36 37 39 40 41 45 52 55 56 55 55 55 54 54 54 54 55 54 42 40 47 53 54 53 53
30 31 31 32 35 35 35 35 36 36 36 38 39 42 44 48 53 53 53 53 54 53 53 46 40 38 37 41 46 53 54 51
30 30 31 32 33 35 35 35 34 34 35 35 36 38 38 39 41 41 41 41 41 40 40 39 37 34 35 39 44 51 44 39

GFSFLT1_sfc_30mbdewp_111.txt.gz
Dewpoint
24 25 26 24 23 35 60 62 65 64 65 64 63 64 64 63 63 63 62 63 64 64 63 63 62 62 62 62 61 61 60 60
25 26 27 26 24 36 61 62 64 64 64 63 63 62 63 63 63 63 62 63 64 63 63 62 62 62 62 62 61 60 60 60
26 29 30 30 27 30 61 63 64 64 64 63 63 62 61 61 62 63 63 62 63 63 62 62 62 61 61 61 60 59 59 60
25 25 29 33 33 31 59 63 64 64 63 63 62 62 61 60 60 61 61 62 62 63 62 61 60 60 59 60 59 57 56 59
40 44 45 42 40 41 51 64 64 64 63 62 61 61 60 60 60 60 60 61 62 62 61 60 59 58 57 58 59 58 57 57
46 47 48 49 51 52 53 50 64 63 63 62 61 60 61 60 60 60 60 60 60 62 60 59 58 57 57 56 57 58 58 57
45 45 46 46 47 48 50 53 52 63 62 61 60 60 60 59 59 59 59 60 60 61 60 59 58 57 57 56 57 58 57 57
42 42 43 43 43 45 47 50 51 53 61 60 60 59 60 59 58 59 59 59 60 60 60 59 58 57 57 56 56 57 57 57
40 40 40 40 40 42 44 46 49 51 60 60 59 59 60 59 58 59 59 58 58 60 60 59 58 57 57 57 57 57 57 57
38 38 37 38 39 40 42 45 48 53 54 61 60 60 60 59 59 59 59 58 58 59 60 60 59 57 57 57 57 57 57 57
36 36 36 36 38 39 42 45 48 57 53 61 60 61 60 59 59 58 57 57 58 58 60 59 59 58 58 57 56 57 57 57
36 36 35 36 37 38 40 42 46 57 58 60 60 60 59 60 59 58 57 57 57 56 58 59 59 58 58 57 57 57 56 56
34 35 35 35 36 37 38 40 43 47 58 58 60 60 60 60 58 57 57 56 56 56 56 57 59 58 58 57 56 56 56 55
33 33 34 35 35 36 36 38 40 43 54 57 58 59 59 58 58 56 56 56 56 56 56 56 58 58 58 57 56 56 55 55
32 33 33 34 36 36 36 37 38 40 44 47 53 58 59 58 57 56 56 56 56 56 57 56 57 57 57 57 56 56 56 55
32 32 32 33 35 36 36 36 37 38 39 41 42 46 58 58 57 56 56 56 55 55 56 56 56 56 54 56 55 55 55 55
30 31 31 32 33 34 35 35 35 36 37 38 39 40 43 52 56 56 55 55 55 55 55 55 48 43 41 48 55 55 55 54
29 30 31 32 32 34 34 35 35 34 35 36 37 37 38 38 41 49 52 54 53 52 49 46 41 39 37 43 49 54 54 51
30 30 30 32 33 33 34 33 34 33 33 34 35 36 36 36 35 35 36 37 39 39 38 37 36 35 36 39 48 45 41 39

GFSFLT1_sfc_30mbdewp_114.txt.gz
Dewpoint
24 25 25 24 24 45 61 63 64 65 65 65 65 64 64 64 63 64 64 65 64 63 63 62 63 63 61 61 61 60 60 59
24 25 25 26 26 32 58 62 63 65 64 64 63 63 63 63 63 63 62 63 64 63 63 62 62 62 62 62 61 60 59 60
24 25 26 29 32 35 56 61 63 64 64 64 63 63 63 63 63 63 63 62 63 63 62 62 62 61 61 61 61 60 60 60
41 47 49 50 51 51 57 61 64 64 64 64 63 62 62 62 62 62 62 62 62 63 62 62 61 61 60 60 60 59 58 59
46 47 46 46 47 50 51 57 63 64 64 63 62 61 60 61 61 61 62 62 62 63 62 61 61 61 60 60 60 59 57 56
43 43 43 43 44 46 48 50 53 63 63 63 62 61 61 60 60 60 61 61 62 62 61 61 60 59 58 59 59 58 58 56
39 39 40 40 41 43 45 46 48 51 57 63 62 61 61 60 60 59 60 60 60 61 61 60 59 58 57 57 57 58 57 57
36 36 37 38 39 40 42 44 46 48 50 56 62 62 61 60 60 59 59 59 59 61 60 59 58 57 57 56 56 57 57 57
35 35 36 36 38 39 40 42 44 48 49 52 61 61 61 60 60 60 59 59 59 60 60 59 58 57 57 56 55 56 58 57
35 35 35 36 37 38 39 41 42 46 50 57 56 61 61 60 59 59 59 59 59 60 60 59 58 57 57 56 55 56 57 57
34 34 35 36 36 37 38 40 41 44 47 56 56 60 60 60 59 59 59 59 59 59 60 59 58 57 57 57 55 56 56 56
33 34 35 36 36 37 37 38 39 42 45 53 59 60 60 60 59 59 59 58 58 59 59 59 59 57 57 57 56 56 56 56
33 34 34 35 36 36 36 38 38 40 43 48 57 59 60 60 59 59 59 58 58 58 59 59 58 58 57 57 56 56 56 56
33 33 33 34 35 35 36 37 37 38 40 43 47 49 58 59 59 58 58 58 57 57 58 58 57 58 57 57 57 56 56 56
31 32 32 33 34 35 35 36 36 37 38 40 41 43 47 58 57 57 57 57 56 56 56 57 58 58 58 57 57 56 56 56
30 30 31 32 33 34 34 34 36 36 36 37 38 40 41 45 57 57 57 57 56 56 56 56 57 57 56 57 57 56 55 55
29 29 30 31 32 32 33 33 33 35 34 35 37 38 38 39 41 52 56 56 56 56 56 56 52 47 46 51 56 56 55 55
28 29 29 30 32 33 32 32 33 32 34 33 35 35 37 37 36 37 39 41 49 48 47 46 43 40 40 47 50 55 55 54
27 28 28 29 30 32 32 31 31 30 30 32 33 34 34 35 35 34 33 34 34 34 35 36 36 36 37 43 47 47 44 41

GFSFLT1_sfc_30mbdewp_117.txt.gz
Dewpoint
24 24 23 23 48 61 63 66 66 66 66 65 65 65 65 65 65 65 65 65 64 63 63 62 62 62 62 61 61 60 60 59
25 25 26 26 25 42 61 64 65 66 65 64 64 64 64 64 65 65 65 65 64 63 63 62 62 62 62 61 61 60 59 60
37 48 49 50 50 41 48 61 63 65 65 64 64 64 63 64 63 63 64 64 64 63 63 62 62 62 62 61 61 60 60 59
45 44 44 45 46 48 53 59 61 64 64 64 63 62 62 62 62 62 63 63 63 63 63 62 62 62 61 61 61 60 58 59
42 42 42 42 43 45 47 51 60 63 64 63 62 62 61 62 62 62 62 62 62 62 62 62 61 61 61 61 61 60 59 57
38 38 39 40 41 42 44 47 49 53 59 63 63 62 61 61 62 62 61 62 62 62 62 61 61 61 61 60 59 59 59 58
35 36 37 38 39 40 43 45 46 48 51 54 63 62 61 60 60 60 61 61 61 62 62 61 61 61 60 59 59 59 58 57
35 35 35 36 37 39 41 42 44 46 49 51 53 62 62 60 60 60 60 60 60 60 61 61 60 59 58 58 58 58 58 57
34 35 35 36 36 38 39 40 42 43 45 48 51 54 62 61 59 60 60 60 60 60 60 60 60 58 58 58 57 57 57 57
33 34 35 36 36 37 38 39 40 41 43 45 48 55 59 61 61 60 60 60 60 60 60 60 59 58 58 57 56 56 56 56
34 34 35 35 36 37 37 38 39 40 41 43 47 54 57 61 60 60 60 60 60 59 60 59 58 58 57 56 56 55 55 56
33 33 35 35 35 35 36 37 38 39 40 42 45 49 59 61 60 60 60 59 59 59 59 59 58 57 57 56 56 56 55 55
32 32 33 34 35 35 35 36 37 38 39 41 43 45 49 60 60 59 59 59 59 59 59 59 58 57 57 56 55 55 55 55
30 31 32 33 34 34 34 35 35 36 37 38 40 41 43 47 57 59 59 59 58 59 59 58 58 58 57 56 56 56 55 56
29 30 31 32 33 33 33 34 34 35 35 36 37 39 40 42 47 57 59 58 58 58 58 58 58 57 57 56 56 56 56 56
28 29 29 31 31 32 32 32 32 33 34 34 35 36 38 39 40 43 53 58 58 57 58 58 57 57 57 57 57 56 56 56
27 28 28 29 31 30 30 30 31 31 31 32 34 35 35 36 36 37 37 40 50 57 56 57 56 49 45 55 57 56 56 55
25 27 27 28 30 31 29 29 29 29 30 30 31 33 34 34 35 35 35 34 35 37 40 43 40 38 39 44 53 56 55 55
24 25 26 27 28 29 30 28 28 28 27 28 30 30 31 33 33 33 34 34 33 32 33 34 35 35 38 42 45 52 48 45

GFSFLT1_sfc_30mbdewp_120.txt.gz
Dewpoint
24 25 24 40 56 62 64 66 65 64 64 64 64 64 64 64 64 64 64 64 64 64 63 62 62 62 62 61 61 61 60 59
31 41 45 35 34 35 61 65 66 65 65 64 63 63 63 64 64 64 64 64 64 63 63 62 62 62 61 60 61 60 59 60
44 45 45 45 46 47 47 58 65 66 65 64 64 64 64 64 65 64 65 64 64 63 63 62 62 62 62 61 61 60 60 60
42 42 42 43 43 44 46 50 61 65 65 65 63 63 62 63 63 63 64 65 64 64 63 62 62 62 62 61 61 60 58 59
37 38 39 40 40 42 44 47 53 60 65 64 63 62 62 62 63 63 64 64 64 64 63 62 62 62 62 61 61 61 59 57
35 36 37 38 39 40 42 46 48 52 57 63 63 62 62 61 62 62 63 62 63 63 62 62 62 61 61 61 61 60 60 58
35 36 36 37 38 39 41 43 45 48 51 53 59 62 61 61 61 61 61 61 61 62 62 61 61 61 61 61 60 60 59 59
35 35 36 37 37 38 39 41 42 44 46 48 51 54 58 61 60 61 61 61 61 61 61 61 61 61 61 61 60 59 59 58
35 35 35 36 36 37 38 39 40 41 43 45 47 50 54 58 61 61 61 61 61 61 61 61 61 61 60 60 59 59 59 58
34 35 35 35 35 36 37 37 38 39 40 43 45 47 51 55 59 61 60 60 56 56 61 61 60 60 59 59 59 58 58 58
33 34 35 35 35 35 36 36 37 38 39 41 43 45 47 50 56 61 60 60 60 60 60 60 60 59 59 59 58 57 57 57
32 33 34 34 34 34 35 35 36 36 38 39 41 42 44 47 56 58 60 60 60 59 60 59 60 58 58 58 57 56 56 55
31 32 32 32 33 33 33 34 34 35 36 38 39 40 42 43 46 51 60 59 59 59 59 59 59 58 58 57 56 56 55 54
30 30 30 31 31 32 32 33 33 33 34 35 37 37 39 40 42 45 53 59 59 59 59 59 58 58 57 57 56 55 55 55
28 28 29 30 30 30 30 31 32 32 33 33 34 36 36 38 39 40 42 46 57 58 59 58 58 58 57 57 56 55 55 55
27 27 27 29 30 29 29 30 30 31 31 32 32 34 35 36 37 38 39 38 40 43 57 58 58 58 57 57 56 56 55 55
24 25 26 27 28 30 27 28 28 29 29 30 31 32 33 34 34 35 36 36 37 36 38 43 49 44 41 54 56 55 56 56
23 23 24 26 27 29 29 26 27 27 28 28 29 30 31 32 32 33 34 34 35 35 35 35 35 35 36 43 50 57 56 55
22 23 23 25 26 27 28 26 24 26 26 26 27 28 28 30 31 31 32 33 32 33 33 33 33 33 35 39 43 51 49 43

GFSFLT1_sfc_30mbdewp_123.txt.gz
Dewpoint
25 28 27 28 39 58 62 64 63 63 63 63 63 63 63 64 64 64 64 64 64 64 64 64 64 63 63 63 62 62 61 60
34 45 46 38 45 53 62 64 64 63 62 62 61 61 62 63 63 63 64 64 64 65 64 63 63 63 63 62 62 60 60 61
38 43 44 44 46 47 49 59 65 64 63 62 62 62 62 63 63 63 63 63 64 64 64 63 63 63 62 62 61 60 60 60
38 39 41 42 43 45 47 49 55 65 65 64 64 65 64 63 63 63 63 64 64 64 64 63 63 63 61 61 61 60 59 60
37 37 38 39 41 43 46 51 53 58 64 65 64 63 62 63 63 63 63 64 64 64 64 63 63 63 63 62 63 62 60 58
37 37 38 39 39 41 44 48 50 52 57 62 64 63 63 63 63 63 63 63 65 64 64 63 63 63 63 62 62 62 61 58
36 36 37 37 39 40 42 44 45 48 50 52 56 62 63 62 63 63 62 64 64 64 64 64 63 63 63 62 62 62 61 59
36 35 36 36 37 38 39 41 42 44 45 47 49 51 54 58 63 63 62 62 62 63 63 62 63 63 62 62 62 62 61 59
35 36 35 35 36 37 38 39 40 41 42 44 46 48 51 53 56 60 62 62 62 62 62 63 63 62 62 62 62 61 61 60
34 35 35 35 36 36 37 37 38 39 40 42 44 46 47 48 51 53 59 62 62 63 62 62 62 62 62 62 61 60 60 59
31 33 33 34 34 35 35 35 35 37 38 40 41 42 43 45 48 52 57 60 62 61 62 62 61 61 61 60 59 60 59 59
30 31 33 31 32 33 33 34 34 35 36 38 39 39 41 42 44 46 49 57 61 60 60 60 60 60 60 59 58 59 58 58
30 30 31 32 30 31 32 33 33 34 35 36 37 38 38 39 41 42 43 47 60 60 60 60 60 60 59 58 58 58 58 57
28 28 29 30 31 29 30 31 32 33 33 34 35 35 36 37 38 39 41 42 46 57 59 59 59 59 59 58 58 58 57 57
26 26 27 28 31 27 28 30 30 31 32 32 33 34 34 35 36 37 38 40 41 41 44 56 59 58 58 58 58 57 57 57
23 23 25 26 28 28 26 28 29 30 30 30 31 32 33 34 34 35 35 36 37 39 39 39 40 42 37 39 54 57 56 56
22 22 23 24 26 28 24 25 27 28 28 28 29 30 31 32 33 33 33 33 34 34 35 36 36 36 35 37 42 55 56 55
21 22 23 24 25 27 26 23 24 25 26 26 27 29 29 30 30 31 32 32 31 31 31 33 32 32 34 35 40 48 55 56
21 21 21 23 23 25 27 26 23 23 24 25 26 27 27 28 29 30 31 31 30 30 30 30 30 30 32 34 35 36 35 35

GFSFLT1_sfc_30mbdewp_126.txt.gz
Dewpoint
16 14 10 25 35 33 30 46 60 62 62 62 61 61 63 63 63 63 63 64 65 65 64 65 66 65 64 64 64 64 62 61
17 16 24 43 43 44 35 42 58 62 61 60 59 59 60 61 61 62 63 64 64 64 64 65 65 64 64 64 64 62 62 62
34 37 40 44 45 45 46 48 51 61 61 59 57 58 58 59 60 60 62 63 64 64 64 64 63 63 63 63 63 61 62 62
37 37 40 42 43 45 46 50 57 60 63 61 59 58 59 59 60 60 61 62 63 65 64 64 63 63 62 63 62 62 60 62
37 38 39 40 41 43 47 50 53 62 64 62 61 61 61 62 62 61 62 62 62 63 63 63 62 63 62 62 62 62 61 59
37 37 38 39 40 41 44 48 52 55 62 62 64 62 61 62 63 63 64 63 63 62 63 63 64 63 63 63 62 63 62 61
36 37 38 38 40 41 42 44 46 50 54 55 60 62 63 62 63 63 63 64 64 64 65 65 64 64 64 64 63 63 62 61
33 35 36 37 39 39 41 41 42 45 48 49 51 54 56 58 59 62 63 63 63 64 64 64 64 64 64 64 64 62 62 62
31 33 34 35 37 38 39 39 40 42 44 46 47 49 51 52 53 55 57 60 63 63 64 64 64 64 64 64 64 63 63 63
30 31 33 33 35 36 37 38 38 39 42 44 44 45 48 49 51 54 55 57 59 63 63 63 63 63 63 64 63 62 63 63
29 30 31 32 33 35 36 37 37 38 39 41 42 42 43 45 46 47 47 50 53 58 63 63 62 63 62 63 62 62 62 62
28 29 30 32 30 31 34 35 36 36 37 38 39 39 41 41 42 42 43 45 49 54 61 61 62 62 62 62 61 61 60 61
28 28 29 30 29 30 31 33 34 35 35 36 36 37 37 38 38 39 40 42 43 46 50 60 60 60 61 61 60 59 59 59
28 28 28 28 30 29 31 32 33 34 34 34 34 35 36 36 36 37 38 39 40 41 42 43 47 57 59 60 59 59 59 59
25 27 27 28 30 29 30 31 31 33 33 34 33 33 34 35 35 35 35 35 35 37 38 38 38 37 37 39 44 56 59 59
22 23 24 26 27 29 29 29 29 30 30 32 33 33 33 33 34 35 35 34 34 34 34 34 34 34 34 35 39 45 54 58
22 22 23 24 25 27 26 25 27 28 29 29 31 32 33 33 33 33 33 33 33 33 33 32 32 32 33 35 36 45 49 55
22 22 23 23 25 26 26 25 25 26 27 28 28 30 31 32 32 32 32 32 32 31 31 32 31 30 31 33 36 38 37 36
21 22 22 23 24 25 25 25 25 25 25 26 27 28 28 30 30 31 31 31 31 30 30 30 30 29 30 30 33 35 34 33

GFSFLT1_sfc_30mbdewp_132.txt.gz
Dewpoint
31 32 35 36 39 42 43 45 45 48 48 51 63 64 64 64 63 64 66 67 66 67 66 66 67 65 65 66 65 65 63 61
29 31 33 35 37 39 42 43 44 45 46 48 53 61 63 63 62 62 65 66 66 66 67 66 65 66 65 65 66 64 63 62
28 30 32 35 36 38 40 41 42 43 46 49 54 57 62 63 63 61 63 66 66 65 67 65 65 63 64 64 64 63 62 63
28 29 30 32 34 37 38 39 41 43 45 48 53 57 61 61 62 61 62 64 67 66 65 65 64 64 62 63 63 62 62 62
28 28 28 30 32 35 37 39 41 43 45 48 50 53 56 60 61 62 61 62 65 66 65 64 65 63 62 62 64 62 61 59
28 29 29 29 31 33 36 38 41 42 43 47 51 53 58 61 60 61 61 62 63 65 64 64 65 64 63 64 64 63 62 59
27 29 29 29 32 33 34 37 40 41 42 47 50 52 57 60 59 61 60 63 63 64 64 64 64 64 64 63 64 64 62 61
28 29 29 29 30 32 33 35 39 41 42 46 48 50 55 55 57 57 56 57 60 62 65 65 64 65 65 65 64 63 63 61
29 28 29 30 31 31 32 33 37 40 41 44 46 47 49 49 50 51 51 55 55 56 57 64 63 64 64 65 64 64 63 62
29 28 29 30 31 31 32 32 33 39 42 43 44 44 44 45 46 47 48 48 50 52 53 53 58 64 65 64 64 64 64 63
28 29 30 30 31 31 32 32 32 37 39 41 41 41 41 41 41 42 43 43 44 44 45 45 46 49 56 63 63 64 63 64
28 28 30 30 31 31 31 32 32 34 39 39 38 38 39 39 39 39 40 39 39 39 40 39 39 40 41 44 48 57 62 62
28 29 29 30 30 31 31 31 32 32 38 37 37 36 37 38 38 37 38 37 37 37 36 36 35 36 38 39 40 43 47 51
27 27 28 29 29 30 31 31 31 33 34 36 37 36 36 35 36 35 35 36 35 34 34 34 33 34 35 37 40 43 45 48
25 25 26 28 29 30 31 31 31 32 33 34 34 35 35 35 35 34 34 34 34 34 33 32 32 32 33 35 38 38 37 38
22 22 24 26 28 28 29 29 30 31 31 32 33 33 34 33 33 33 33 32 32 32 33 31 31 30 31 33 36 34 34 34
22 22 23 24 25 27 28 29 28 29 28 29 29 30 30 31 31 31 31 30 30 30 30 30 28 29 31 32 33 33 32 31
23 22 24 24 24 25 25 26 27 27 27 27 27 27 28 28 29 29 29 29 29 28 28 28 27 27 29 30 32 32 30 29
22 24 24 23 23 24 24 25 26 25 26 26 25 26 26 27 28 28 28 28 28 28 27 27 27 26 27 27 29 30 30 30